FBU78W FMEE-LFPO

Flight info

Callsign FBU78W
Flight time 11h 27m
Altitude 38000
Route UVENA2N UVENA UN304 DWA DCT XADOX DCT KONET UG650 RASKA T513 EGMEG G660 JDW L677 CVO L617 TANSA UL613 KOR DCT TUMBO DCT OVVER DCT RODON DCT VAKSU DCT BAXON DCT CERVI DCT MOLUS DCT UNKIR DCT DJL
Aircraft A35K/H-SDE2E3GHIJ3J4J5LM1ORWXY/LB1D1

Departure

Time 2026-04-26 03:19
Airport Roland Garros Airport (FMEE)

Arrival

Time 2026-04-26 14:47
Airport Paris-Orly Airport (LFPO)
Time Latitude Longitude Altitude Speed Heading
2026-04-26 03:08 -20.89058 55.51251 56 ft 0 kts 201°
2026-04-26 03:10 -20.89045 55.51256 33 ft 3 kts 201°
2026-04-26 03:10 -20.89027 55.51264 38 ft 3 kts 210°
2026-04-26 03:10 -20.89013 55.51276 52 ft 3 kts 227°
2026-04-26 03:10 -20.89002 55.51290 51 ft 0 kts 242°
2026-04-26 03:12 -20.89002 55.51287 51 ft 0 kts 257°
2026-04-26 03:12 -20.88998 55.51271 51 ft 6 kts 283°
2026-04-26 03:13 -20.88963 55.51204 49 ft 15 kts 315°
2026-04-26 03:13 -20.88845 55.51153 49 ft 21 kts 341°
2026-04-26 03:13 -20.88734 55.51073 49 ft 19 kts 304°
2026-04-26 03:13 -20.88695 55.50935 51 ft 20 kts 282°
2026-04-26 03:14 -20.88666 55.50786 51 ft 20 kts 281°
2026-04-26 03:14 -20.88638 55.50642 52 ft 19 kts 282°
2026-04-26 03:14 -20.88587 55.50520 52 ft 15 kts 306°
2026-04-26 03:14 -20.88589 55.50501 52 ft 0 kts 233°
2026-04-26 03:15 -20.88594 55.50498 50 ft 2 kts 214°
2026-04-26 03:15 -20.88606 55.50506 51 ft 2 kts 137°
2026-04-26 03:15 -20.88612 55.50533 51 ft 7 kts 104°
2026-04-26 03:15 -20.88630 55.50617 52 ft 16 kts 102°
2026-04-26 03:16 -20.88662 55.50765 51 ft 24 kts 103°
2026-04-26 03:16 -20.88682 55.50895 50 ft 0 kts 62°
2026-04-26 03:16 -20.88674 55.50901 49 ft 3 kts 29°
2026-04-26 03:16 -20.88628 55.50866 50 ft 15 kts 296°
2026-04-26 03:17 -20.88562 55.50725 48 ft 28 kts 296°
2026-04-26 03:17 -20.88469 55.50526 44 ft 27 kts 304°
2026-04-26 03:17 -20.88437 55.50491 44 ft 2 kts 318°
2026-04-26 03:17 -20.88418 55.50457 43 ft 6 kts 270°
2026-04-26 03:18 -20.88437 55.50449 44 ft 2 kts 165°
2026-04-26 03:18 -20.88444 55.50466 44 ft 4 kts 115°
2026-04-26 03:18 -20.88460 55.50506 44 ft 0 kts 115°
2026-04-26 03:18 -20.88464 55.50513 44 ft 7 kts 115°
2026-04-26 03:19 -20.88559 55.50721 48 ft 65 kts 116°
2026-04-26 03:19 -20.88876 55.51392 50 ft 135 kts 116°
2026-04-26 03:19 -20.89385 55.52470 186 ft 184 kts 117°
2026-04-26 03:19 -20.89925 55.53692 936 ft 175 kts 113°
2026-04-26 03:20 -20.89841 55.54973 1398 ft 185 kts 66°
2026-04-26 03:20 -20.88832 55.55892 1536 ft 208 kts 21°
2026-04-26 03:20 -20.87339 55.55852 1683 ft 227 kts 344°
2026-04-26 03:20 -20.85760 55.55405 1843 ft 241 kts 353°
2026-04-26 03:21 -20.84035 55.55301 2036 ft 257 kts
2026-04-26 03:21 -20.82228 55.55417 2434 ft 264 kts
2026-04-26 03:21 -20.80390 55.55652 2923 ft 268 kts
2026-04-26 03:21 -20.78539 55.55882 3345 ft 275 kts
2026-04-26 03:22 -20.76651 55.55517 3840 ft 278 kts 339°
2026-04-26 03:22 -20.74861 55.54706 4346 ft 281 kts 336°
2026-04-26 03:22 -20.73059 55.53881 4871 ft 283 kts 338°
2026-04-26 03:22 -20.71221 55.53065 5367 ft 287 kts 338°
2026-04-26 03:23 -20.69368 55.52251 5857 ft 289 kts 338°
2026-04-26 03:23 -20.67507 55.51436 6398 ft 290 kts 338°
2026-04-26 03:23 -20.65620 55.50613 6847 ft 294 kts 339°
2026-04-26 03:23 -20.63745 55.49796 7344 ft 295 kts 339°
2026-04-26 03:24 -20.61820 55.48960 7856 ft 297 kts 339°
2026-04-26 03:24 -20.59920 55.48136 8350 ft 299 kts 339°
2026-04-26 03:24 -20.57987 55.47295 8831 ft 302 kts 339°
2026-04-26 03:24 -20.56036 55.46445 9345 ft 304 kts 339°
2026-04-26 03:25 -20.54073 55.45585 9873 ft 306 kts 338°
2026-04-26 03:25 -20.52091 55.44717 10208 ft 314 kts 338°
2026-04-26 03:25 -20.50022 55.43812 10437 ft 325 kts 338°
2026-04-26 03:25 -20.47900 55.42885 10661 ft 337 kts 338°
2026-04-26 03:26 -20.45696 55.41922 10904 ft 348 kts 338°
2026-04-26 03:26 -20.43453 55.40943 11139 ft 358 kts 338°
2026-04-26 03:26 -20.41110 55.39921 11372 ft 368 kts 338°
2026-04-26 03:26 -20.38719 55.38878 11602 ft 378 kts 338°
2026-04-26 03:27 -20.36254 55.37802 11848 ft 387 kts 338°
2026-04-26 03:27 -20.33736 55.36704 12095 ft 395 kts 338°
2026-04-26 03:27 -20.31169 55.35585 12307 ft 403 kts 338°
2026-04-26 03:27 -20.28556 55.34447 12605 ft 409 kts 338°
2026-04-26 03:28 -20.25911 55.33296 12958 ft 413 kts 338°
2026-04-26 03:28 -20.23233 55.32129 13313 ft 416 kts 338°
2026-04-26 03:28 -20.20576 55.30973 13679 ft 419 kts 338°
2026-04-26 03:28 -20.17881 55.29801 14012 ft 422 kts 338°
2026-04-26 03:29 -20.15150 55.28614 14344 ft 424 kts 337°
2026-04-26 03:29 -20.12420 55.27427 14672 ft 427 kts 337°
2026-04-26 03:29 -20.09652 55.26225 14991 ft 429 kts 337°
2026-04-26 03:29 -20.06882 55.25022 15311 ft 432 kts 337°
2026-04-26 03:30 -20.04092 55.23810 15645 ft 434 kts 337°
2026-04-26 03:30 -20.01288 55.22594 15972 ft 436 kts 337°
2026-04-26 03:30 -19.98466 55.21369 16295 ft 439 kts 337°
2026-04-26 03:30 -19.95668 55.20156 16611 ft 441 kts 337°
2026-04-26 03:31 -19.92819 55.18921 16924 ft 444 kts 337°
2026-04-26 03:31 -19.89958 55.17681 17225 ft 447 kts 337°
2026-04-26 03:31 -19.87064 55.16428 17526 ft 449 kts 337°
2026-04-26 03:31 -19.84163 55.15172 17837 ft 452 kts 337°
2026-04-26 03:32 -19.81244 55.13908 18102 ft 455 kts 337°
2026-04-26 03:32 -19.78314 55.12640 18375 ft 457 kts 337°
2026-04-26 03:32 -19.75361 55.11364 18628 ft 459 kts 337°
2026-04-26 03:32 -19.72439 55.10100 18902 ft 460 kts 337°
2026-04-26 03:33 -19.69462 55.08814 19166 ft 462 kts 337°
2026-04-26 03:33 -19.66489 55.07530 19447 ft 463 kts 337°
2026-04-26 03:33 -19.63499 55.06239 19726 ft 465 kts 337°
2026-04-26 03:33 -19.60493 55.04941 19987 ft 466 kts 337°
2026-04-26 03:34 -19.57480 55.03641 20258 ft 468 kts 336°
2026-04-26 03:34 -19.54469 55.02343 20520 ft 469 kts 336°
2026-04-26 03:34 -19.51439 55.01037 20786 ft 470 kts 336°
2026-04-26 03:34 -19.49433 55.00173 20951 ft 471 kts 336°
2026-04-26 03:35 -19.46392 54.98863 21230 ft 473 kts 336°
2026-04-26 03:35 -19.42345 54.97120 21577 ft 475 kts 336°
2026-04-26 03:35 -19.39275 54.95798 21842 ft 476 kts 336°
2026-04-26 03:35 -19.36207 54.94479 22084 ft 478 kts 336°
2026-04-26 03:36 -19.33123 54.93153 22338 ft 479 kts 336°
2026-04-26 03:36 -19.30030 54.91823 22600 ft 480 kts 336°
2026-04-26 03:36 -19.27977 54.90941 22795 ft 481 kts 336°
2026-04-26 03:36 -19.24865 54.89604 23017 ft 483 kts 336°
2026-04-26 03:37 -19.20727 54.87828 23342 ft 485 kts 336°
2026-04-26 03:37 -19.17605 54.86488 23571 ft 486 kts 336°
2026-04-26 03:37 -19.14475 54.85146 23931 ft 483 kts 336°
2026-04-26 03:37 -19.12361 54.84239 24006 ft 486 kts 336°
2026-04-26 03:38 -19.08193 54.82452 24173 ft 491 kts 336°
2026-04-26 03:38 -19.06098 54.81554 24312 ft 491 kts 336°
2026-04-26 03:38 -19.02938 54.80177 24509 ft 492 kts 334°
2026-04-26 03:38 -18.99897 54.78488 24682 ft 491 kts 325°
2026-04-26 03:39 -18.97174 54.76320 24879 ft 490 kts 316°
2026-04-26 03:39 -18.93886 54.73066 25149 ft 491 kts 314°
2026-04-26 03:39 -18.91406 54.70577 25353 ft 492 kts 314°
2026-04-26 03:39 -18.88927 54.68101 25559 ft 493 kts 314°
2026-04-26 03:40 -18.86427 54.65609 25760 ft 495 kts 314°
2026-04-26 03:40 -18.84764 54.63953 25900 ft 496 kts 314°
2026-04-26 03:40 -18.82251 54.61452 26128 ft 497 kts 314°
2026-04-26 03:40 -18.79737 54.58953 26343 ft 498 kts 314°
2026-04-26 03:41 -18.77211 54.56442 26564 ft 499 kts 314°
2026-04-26 03:41 -18.74681 54.53929 26790 ft 501 kts 314°
2026-04-26 03:41 -18.72130 54.51396 26999 ft 502 kts 314°
2026-04-26 03:41 -18.69592 54.48878 27214 ft 503 kts 314°
2026-04-26 03:42 -18.66208 54.45522 27504 ft 505 kts 314°
2026-04-26 03:42 -18.64470 54.43798 27646 ft 506 kts 314°
2026-04-26 03:42 -18.61879 54.41363 27839 ft 509 kts 319°
2026-04-26 03:42 -18.58937 54.39260 28038 ft 515 kts 328°
2026-04-26 03:43 -18.55727 54.37566 28248 ft 518 kts 332°
2026-04-26 03:43 -18.52443 54.35985 28445 ft 519 kts 333°
2026-04-26 03:43 -18.49134 54.34442 28627 ft 521 kts 333°
2026-04-26 03:43 -18.45817 54.32909 28830 ft 522 kts 333°
2026-04-26 03:44 -18.42488 54.31365 29116 ft 521 kts 333°
2026-04-26 03:44 -18.39188 54.29825 29379 ft 520 kts 333°
2026-04-26 03:44 -18.35921 54.28292 29652 ft 519 kts 333°
2026-04-26 03:44 -18.32635 54.26743 29945 ft 518 kts 333°
2026-04-26 03:45 -18.29346 54.25191 30207 ft 517 kts 332°
2026-04-26 03:45 -18.26068 54.23644 30515 ft 515 kts 332°
2026-04-26 03:45 -18.22815 54.22109 30877 ft 511 kts 332°
2026-04-26 03:45 -18.19573 54.20581 31217 ft 508 kts 332°
2026-04-26 03:46 -18.16354 54.19064 31551 ft 505 kts 332°
2026-04-26 03:46 -18.13162 54.17560 31865 ft 503 kts 332°
2026-04-26 03:46 -18.09982 54.16062 32155 ft 501 kts 332°
2026-04-26 03:47 -18.03690 54.13087 32721 ft 496 kts 332°
2026-04-26 03:47 -18.00555 54.11594 32994 ft 494 kts 332°
2026-04-26 03:47 -17.97430 54.10105 33262 ft 493 kts 332°
2026-04-26 03:47 -17.94313 54.08622 33507 ft 491 kts 332°
2026-04-26 03:48 -17.91199 54.07142 33743 ft 490 kts 332°
2026-04-26 03:48 -17.88094 54.05668 33997 ft 488 kts 332°
2026-04-26 03:48 -17.85015 54.04208 34190 ft 487 kts 332°
2026-04-26 03:48 -17.81922 54.02742 34341 ft 487 kts 332°
2026-04-26 03:49 -17.78846 54.01284 34505 ft 486 kts 332°
2026-04-26 03:49 -17.75758 53.99821 34681 ft 485 kts 332°
2026-04-26 03:49 -17.72722 53.98384 34854 ft 484 kts 332°
2026-04-26 03:49 -17.69667 53.96939 35011 ft 484 kts 332°
2026-04-26 03:50 -17.66599 53.95487 35173 ft 483 kts 332°
2026-04-26 03:50 -17.63539 53.94040 35338 ft 482 kts 332°
2026-04-26 03:50 -17.60480 53.92595 35492 ft 481 kts 332°
2026-04-26 03:50 -17.57427 53.91152 35646 ft 481 kts 332°
2026-04-26 03:51 -17.54382 53.89714 35789 ft 480 kts 332°
2026-04-26 03:51 -17.51344 53.88279 35930 ft 480 kts 332°
2026-04-26 03:51 -17.48341 53.86862 36079 ft 479 kts 332°
2026-04-26 03:51 -17.45304 53.85429 36235 ft 478 kts 332°
2026-04-26 03:52 -17.42272 53.83999 36375 ft 477 kts 332°
2026-04-26 03:52 -17.39256 53.82576 36501 ft 477 kts 332°
2026-04-26 03:52 -17.36219 53.81145 36649 ft 476 kts 332°
2026-04-26 03:52 -17.33202 53.79724 36759 ft 476 kts 332°
2026-04-26 03:53 -17.30185 53.78303 36901 ft 475 kts 332°
2026-04-26 03:53 -17.27171 53.76884 37010 ft 474 kts 332°
2026-04-26 03:53 -17.24208 53.75490 37121 ft 474 kts 332°
2026-04-26 03:53 -17.21199 53.74074 37241 ft 473 kts 332°
2026-04-26 03:54 -17.18195 53.72661 37346 ft 473 kts 332°
2026-04-26 03:54 -17.12208 53.69847 37546 ft 472 kts 332°
2026-04-26 03:54 -17.09215 53.68441 37648 ft 472 kts 332°
2026-04-26 03:55 -17.06210 53.67030 37740 ft 471 kts 332°
2026-04-26 03:55 -17.00231 53.64223 37912 ft 471 kts 332°
2026-04-26 03:56 -16.94285 53.61433 37948 ft 474 kts 332°
2026-04-26 03:56 -16.88261 53.58608 37945 ft 476 kts 333°
2026-04-26 03:57 -16.82204 53.55772 37953 ft 476 kts 333°
2026-04-26 03:57 -16.76159 53.52944 37949 ft 476 kts 333°
2026-04-26 03:58 -16.70123 53.50121 37948 ft 475 kts 333°
2026-04-26 03:58 -16.64134 53.47322 37955 ft 475 kts 333°
2026-04-26 03:59 -16.58112 53.44509 37951 ft 474 kts 333°
2026-04-26 03:59 -16.52089 53.41698 37948 ft 474 kts 333°
2026-04-26 04:00 -16.46058 53.38884 37949 ft 474 kts 333°
2026-04-26 04:00 -16.40072 53.36094 37955 ft 474 kts 333°
2026-04-26 04:01 -16.34056 53.33299 37952 ft 474 kts 333°
2026-04-26 04:01 -16.28039 53.30495 37939 ft 474 kts 333°
2026-04-26 04:02 -16.22018 53.27691 37955 ft 474 kts 333°
2026-04-26 04:02 -16.15997 53.24891 37960 ft 474 kts 333°
2026-04-26 04:03 -16.10026 53.22118 37949 ft 473 kts 333°
2026-04-26 04:03 -16.04014 53.19327 37948 ft 473 kts 333°
2026-04-26 04:04 -15.97988 53.16531 37956 ft 473 kts 333°
2026-04-26 04:04 -15.91978 53.13745 37955 ft 473 kts 333°
2026-04-26 04:05 -15.86006 53.10978 37955 ft 473 kts 333°
2026-04-26 04:05 -15.79991 53.08193 37957 ft 473 kts 333°
2026-04-26 04:06 -15.73981 53.05413 37953 ft 473 kts 333°
2026-04-26 04:06 -15.67970 53.02633 37957 ft 473 kts 333°
2026-04-26 04:07 -15.61972 52.99861 37959 ft 473 kts 333°
2026-04-26 04:07 -15.55996 52.97102 37955 ft 472 kts 333°
2026-04-26 04:08 -15.49991 52.94331 37955 ft 472 kts 333°
2026-04-26 04:08 -15.43985 52.91561 37953 ft 472 kts 333°
2026-04-26 04:09 -15.37984 52.88795 37949 ft 472 kts 333°
2026-04-26 04:09 -15.32033 52.86054 37951 ft 472 kts 333°
2026-04-26 04:10 -15.26038 52.83294 37953 ft 471 kts 333°
2026-04-26 04:10 -15.20044 52.80536 37950 ft 471 kts 333°
2026-04-26 04:11 -15.14051 52.77781 37957 ft 471 kts 333°
2026-04-26 04:11 -15.08070 52.75033 37956 ft 471 kts 333°
2026-04-26 04:12 -15.02129 52.72305 37950 ft 470 kts 333°
2026-04-26 04:12 -14.96148 52.69560 37952 ft 470 kts 333°
2026-04-26 04:13 -14.90169 52.66818 37953 ft 470 kts 333°
2026-04-26 04:13 -14.84195 52.64079 37953 ft 470 kts 333°
2026-04-26 04:14 -14.78215 52.61340 37952 ft 470 kts 333°
2026-04-26 04:14 -14.72289 52.58627 37950 ft 470 kts 333°
2026-04-26 04:15 -14.66313 52.55893 37950 ft 470 kts 333°
2026-04-26 04:15 -14.60339 52.53162 37958 ft 470 kts 333°
2026-04-26 04:16 -14.54365 52.50431 37960 ft 469 kts 333°
2026-04-26 04:16 -14.48426 52.47719 37948 ft 469 kts 333°
2026-04-26 04:17 -14.42456 52.44994 37949 ft 469 kts 333°
2026-04-26 04:17 -14.36488 52.42271 37950 ft 469 kts 333°
2026-04-26 04:18 -14.30500 52.39541 37956 ft 470 kts 333°
2026-04-26 04:18 -14.24530 52.36821 37952 ft 469 kts 333°
2026-04-26 04:19 -14.18551 52.34099 37957 ft 470 kts 333°
2026-04-26 04:19 -14.12612 52.31396 37950 ft 470 kts 333°
2026-04-26 04:20 -14.06634 52.28677 37952 ft 470 kts 333°
2026-04-26 04:20 -14.00642 52.25952 37954 ft 471 kts 333°
2026-04-26 04:21 -13.94685 52.23246 37952 ft 471 kts 333°
2026-04-26 04:21 -13.88685 52.20522 37955 ft 471 kts 333°
2026-04-26 04:22 -13.82686 52.17800 37953 ft 472 kts 333°
2026-04-26 04:22 -13.76668 52.15070 37954 ft 472 kts 333°
2026-04-26 04:23 -13.70656 52.12345 37953 ft 472 kts 333°
2026-04-26 04:23 -13.64682 52.09638 37954 ft 473 kts 333°
2026-04-26 04:24 -13.58658 52.06911 37951 ft 473 kts 333°
2026-04-26 04:24 -13.52632 52.04184 37952 ft 474 kts 334°
2026-04-26 04:25 -13.46601 52.01456 37952 ft 474 kts 334°
2026-04-26 04:25 -13.40555 51.98729 37952 ft 474 kts 334°
2026-04-26 04:26 -13.34556 51.96019 37952 ft 474 kts 334°
2026-04-26 04:26 -13.28507 51.93283 37948 ft 475 kts 334°
2026-04-26 04:27 -13.22466 51.90555 37950 ft 475 kts 334°
2026-04-26 04:27 -13.16408 51.87822 37953 ft 475 kts 334°
2026-04-26 04:28 -13.10402 51.85115 37951 ft 475 kts 334°
2026-04-26 04:28 -13.04343 51.82385 37954 ft 476 kts 334°
2026-04-26 04:29 -12.98282 51.79656 37948 ft 476 kts 334°
2026-04-26 04:29 -12.92211 51.76923 37948 ft 476 kts 334°
2026-04-26 04:30 -12.86181 51.74211 37952 ft 476 kts 334°
2026-04-26 04:30 -12.80108 51.71480 37949 ft 477 kts 334°
2026-04-26 04:31 -12.74047 51.68756 37947 ft 477 kts 334°
2026-04-26 04:31 -12.67961 51.66023 37948 ft 477 kts 334°
2026-04-26 04:32 -12.61880 51.63293 37948 ft 477 kts 334°
2026-04-26 04:32 -12.55840 51.60584 37947 ft 477 kts 334°
2026-04-26 04:33 -12.49758 51.57856 37948 ft 478 kts 334°
2026-04-26 04:33 -12.43662 51.55124 37944 ft 478 kts 334°
2026-04-26 04:34 -12.37574 51.52396 37948 ft 478 kts 334°
2026-04-26 04:34 -12.31490 51.49672 37945 ft 478 kts 334°
2026-04-26 04:35 -12.25426 51.46959 37944 ft 478 kts 334°
2026-04-26 04:35 -12.19340 51.44236 37943 ft 478 kts 334°
2026-04-26 04:36 -12.13241 51.41510 37943 ft 478 kts 334°
2026-04-26 04:36 -12.07159 51.38796 37943 ft 478 kts 334°
2026-04-26 04:37 -12.01105 51.36091 37943 ft 478 kts 334°
2026-04-26 04:37 -11.95019 51.33374 37937 ft 477 kts 334°
2026-04-26 04:38 -11.88955 51.30669 37943 ft 475 kts 334°
2026-04-26 04:38 -11.82892 51.27966 37940 ft 475 kts 334°
2026-04-26 04:39 -11.76834 51.25266 37939 ft 475 kts 334°
2026-04-26 04:39 -11.70831 51.22592 37939 ft 475 kts 334°
2026-04-26 04:40 -11.64767 51.19892 37940 ft 475 kts 334°
2026-04-26 04:40 -11.58713 51.17198 37938 ft 475 kts 335°
2026-04-26 04:41 -11.52646 51.14499 37933 ft 475 kts 335°
2026-04-26 04:41 -11.46632 51.11826 37951 ft 475 kts 335°
2026-04-26 04:42 -11.40572 51.09133 37933 ft 475 kts 335°
2026-04-26 04:42 -11.34514 51.06442 37933 ft 475 kts 335°
2026-04-26 04:43 -11.28454 51.03751 37952 ft 475 kts 335°
2026-04-26 04:43 -11.22390 51.01061 37934 ft 475 kts 335°
2026-04-26 04:44 -11.16360 50.98386 37934 ft 475 kts 335°
2026-04-26 04:44 -11.10296 50.95698 37952 ft 475 kts 335°
2026-04-26 04:45 -11.04236 50.93013 37932 ft 475 kts 335°
2026-04-26 04:45 -10.98179 50.90329 37950 ft 475 kts 335°
2026-04-26 04:46 -10.92151 50.87661 37949 ft 475 kts 335°
2026-04-26 04:46 -10.86088 50.84977 37930 ft 475 kts 335°
2026-04-26 04:47 -10.80020 50.82293 37945 ft 475 kts 335°
2026-04-26 04:47 -10.73957 50.79613 37943 ft 475 kts 335°
2026-04-26 04:48 -10.64901 50.75611 37925 ft 475 kts 335°
2026-04-26 04:48 -10.58829 50.72929 37938 ft 476 kts 335°
2026-04-26 04:49 -10.52762 50.70250 37937 ft 475 kts 335°
2026-04-26 04:49 -10.46701 50.67576 37938 ft 476 kts 335°
2026-04-26 04:50 -10.40662 50.64912 37940 ft 476 kts 335°
2026-04-26 04:50 -10.34602 50.62240 37940 ft 476 kts 335°
2026-04-26 04:51 -10.28524 50.59561 37939 ft 476 kts 335°
2026-04-26 04:51 -10.22460 50.56890 37938 ft 476 kts 335°
2026-04-26 04:52 -10.16380 50.54213 37938 ft 476 kts 335°
2026-04-26 04:52 -10.10294 50.51534 37938 ft 476 kts 335°
2026-04-26 04:53 -10.04252 50.48875 37936 ft 476 kts 335°
2026-04-26 04:53 -9.98169 50.46201 37938 ft 477 kts 335°
2026-04-26 04:54 -9.92095 50.43529 37938 ft 477 kts 335°
2026-04-26 04:54 -9.86002 50.40848 37936 ft 477 kts 335°
2026-04-26 04:55 -9.79954 50.38189 37940 ft 477 kts 335°
2026-04-26 04:55 -9.73875 50.35518 37939 ft 477 kts 335°
2026-04-26 04:56 -9.67782 50.32841 37937 ft 477 kts 335°
2026-04-26 04:56 -9.61695 50.30168 37941 ft 477 kts 336°
2026-04-26 04:57 -9.55655 50.27517 37941 ft 477 kts 336°
2026-04-26 04:57 -9.49563 50.24844 37935 ft 477 kts 336°
2026-04-26 04:58 -9.43471 50.22173 37937 ft 477 kts 336°
2026-04-26 04:58 -9.37374 50.19500 37939 ft 477 kts 336°
2026-04-26 04:59 -9.31281 50.16830 37940 ft 477 kts 336°
2026-04-26 04:59 -9.25230 50.14179 37939 ft 477 kts 336°
2026-04-26 05:00 -9.19140 50.11512 37937 ft 477 kts 336°
2026-04-26 05:00 -9.13040 50.08842 37942 ft 477 kts 336°
2026-04-26 05:01 -9.06980 50.06190 37938 ft 477 kts 336°
2026-04-26 05:01 -9.00899 50.03530 37941 ft 477 kts 336°
2026-04-26 05:02 -8.94802 50.00864 37941 ft 477 kts 336°
2026-04-26 05:02 -8.88705 49.98199 37940 ft 478 kts 336°
2026-04-26 05:03 -8.82598 49.95531 37942 ft 478 kts 336°
2026-04-26 05:03 -8.76527 49.92879 37940 ft 479 kts 336°
2026-04-26 05:04 -8.70414 49.90210 37938 ft 479 kts 336°
2026-04-26 05:04 -8.64302 49.87543 37938 ft 479 kts 336°
2026-04-26 05:05 -8.58178 49.84871 37939 ft 479 kts 336°
2026-04-26 05:05 -8.52048 49.82197 37940 ft 480 kts 336°
2026-04-26 05:06 -8.45961 49.79543 37940 ft 480 kts 336°
2026-04-26 05:06 -8.39835 49.76873 37940 ft 480 kts 336°
2026-04-26 05:07 -8.33698 49.74199 37938 ft 480 kts 336°
2026-04-26 05:07 -8.27561 49.71526 37933 ft 480 kts 336°
2026-04-26 05:08 -8.21424 49.68854 37938 ft 481 kts 336°
2026-04-26 05:08 -8.15317 49.66196 37943 ft 481 kts 336°
2026-04-26 05:09 -8.09167 49.63520 37943 ft 481 kts 336°
2026-04-26 05:09 -8.03020 49.60846 37937 ft 481 kts 336°
2026-04-26 05:10 -7.96872 49.58173 37940 ft 481 kts 336°
2026-04-26 05:10 -7.90716 49.55497 37945 ft 481 kts 336°
2026-04-26 05:11 -7.84604 49.52841 37940 ft 482 kts 336°
2026-04-26 05:11 -7.78455 49.50170 37941 ft 482 kts 336°
2026-04-26 05:12 -7.72297 49.47496 37939 ft 482 kts 336°
2026-04-26 05:12 -7.66140 49.44823 37940 ft 482 kts 336°
2026-04-26 05:13 -7.60020 49.42166 37947 ft 482 kts 336°
2026-04-26 05:13 -7.53857 49.39493 37945 ft 482 kts 336°
2026-04-26 05:14 -7.47689 49.36818 37949 ft 482 kts 336°
2026-04-26 05:14 -7.41516 49.34141 37943 ft 483 kts 336°
2026-04-26 05:15 -7.35397 49.31489 37945 ft 482 kts 336°
2026-04-26 05:15 -7.29234 49.28818 37948 ft 483 kts 336°
2026-04-26 05:16 -7.23062 49.26144 37948 ft 483 kts 336°
2026-04-26 05:16 -7.16890 49.23472 37947 ft 482 kts 336°
2026-04-26 05:17 -7.10764 49.20820 37951 ft 482 kts 336°
2026-04-26 05:17 -7.04610 49.18157 37946 ft 482 kts 336°
2026-04-26 05:18 -6.98452 49.15492 37942 ft 481 kts 336°
2026-04-26 05:18 -6.92291 49.12827 37949 ft 481 kts 336°
2026-04-26 05:19 -6.86146 49.10169 37950 ft 481 kts 336°
2026-04-26 05:19 -6.80057 49.07537 37943 ft 480 kts 336°
2026-04-26 05:20 -6.73925 49.04886 37949 ft 480 kts 337°
2026-04-26 05:20 -6.67788 49.02234 37952 ft 479 kts 337°
2026-04-26 05:21 -6.61666 48.99589 37952 ft 479 kts 337°
2026-04-26 05:21 -6.55551 48.96949 37952 ft 478 kts 337°
2026-04-26 05:22 -6.49485 48.94330 37954 ft 478 kts 337°
2026-04-26 05:22 -6.43374 48.91692 37956 ft 478 kts 337°
2026-04-26 05:23 -6.37267 48.89057 37950 ft 477 kts 337°
2026-04-26 05:23 -6.31168 48.86425 37953 ft 477 kts 337°
2026-04-26 05:24 -6.25097 48.83807 37953 ft 477 kts 337°
2026-04-26 05:24 -6.19006 48.81180 37954 ft 477 kts 337°
2026-04-26 05:25 -6.12897 48.78547 37948 ft 477 kts 337°
2026-04-26 05:25 -6.06827 48.75931 37952 ft 477 kts 336°
2026-04-26 05:26 -6.00734 48.73305 37955 ft 477 kts 337°
2026-04-26 05:26 -5.94631 48.70676 37953 ft 477 kts 337°
2026-04-26 05:27 -5.88521 48.68045 37955 ft 478 kts 337°
2026-04-26 05:27 -5.82411 48.65414 37953 ft 478 kts 337°
2026-04-26 05:28 -5.76340 48.62801 37952 ft 477 kts 337°
2026-04-26 05:28 -5.70236 48.60173 37956 ft 477 kts 337°
2026-04-26 05:29 -5.64146 48.57553 37955 ft 477 kts 337°
2026-04-26 05:29 -5.58043 48.54928 37955 ft 477 kts 337°
2026-04-26 05:30 -5.51979 48.52320 37951 ft 477 kts 337°
2026-04-26 05:30 -5.45895 48.49704 37956 ft 476 kts 337°
2026-04-26 05:31 -5.39795 48.47081 37956 ft 476 kts 337°
2026-04-26 05:31 -5.33710 48.44466 37955 ft 476 kts 337°
2026-04-26 05:32 -5.27618 48.41848 37957 ft 476 kts 337°
2026-04-26 05:32 -5.21564 48.39247 37954 ft 476 kts 337°
2026-04-26 05:33 -5.15485 48.36637 37955 ft 476 kts 337°
2026-04-26 05:33 -5.09396 48.34022 37956 ft 476 kts 337°
2026-04-26 05:34 -5.03301 48.31405 37955 ft 476 kts 337°
2026-04-26 05:34 -4.97211 48.28790 37955 ft 476 kts 337°
2026-04-26 05:35 -4.91154 48.26191 37954 ft 477 kts 337°
2026-04-26 05:35 -4.85047 48.23571 37957 ft 477 kts 337°
2026-04-26 05:36 -4.78949 48.20955 37958 ft 477 kts 337°
2026-04-26 05:36 -4.72856 48.18342 37953 ft 477 kts 338°
2026-04-26 05:37 -4.66761 48.15728 37954 ft 477 kts 338°
2026-04-26 05:37 -4.60699 48.13129 37958 ft 477 kts 338°
2026-04-26 05:38 -4.54597 48.10513 37960 ft 477 kts 338°
2026-04-26 05:38 -4.48514 48.07906 37959 ft 477 kts 338°
2026-04-26 05:39 -4.42405 48.05289 37957 ft 477 kts 338°
2026-04-26 05:39 -4.36353 48.02696 37958 ft 477 kts 338°
2026-04-26 05:40 -4.30250 48.00082 37954 ft 477 kts 338°
2026-04-26 05:40 -4.24160 47.97474 37961 ft 477 kts 338°
2026-04-26 05:41 -4.18050 47.94859 37956 ft 477 kts 338°
2026-04-26 05:41 -4.11984 47.92256 37958 ft 477 kts 338°
2026-04-26 05:42 -4.05888 47.89638 37962 ft 477 kts 338°
2026-04-26 05:42 -3.99776 47.87016 37959 ft 478 kts 338°
2026-04-26 05:43 -3.93661 47.84394 37959 ft 478 kts 338°
2026-04-26 05:43 -3.87585 47.81789 37954 ft 479 kts 338°
2026-04-26 05:44 -3.81463 47.79165 37956 ft 479 kts 338°
2026-04-26 05:44 -3.75319 47.76532 37956 ft 480 kts 338°
2026-04-26 05:45 -3.69182 47.73903 37959 ft 481 kts 338°
2026-04-26 05:45 -3.63066 47.71282 37957 ft 482 kts 338°
2026-04-26 05:46 -3.56897 47.68639 37957 ft 483 kts 338°
2026-04-26 05:46 -3.50708 47.65989 37959 ft 484 kts 338°
2026-04-26 05:47 -3.44525 47.63341 37954 ft 485 kts 338°
2026-04-26 05:47 -3.38314 47.60681 37956 ft 485 kts 338°
2026-04-26 05:48 -3.32150 47.58042 37956 ft 485 kts 338°
2026-04-26 05:48 -3.25949 47.55387 37958 ft 485 kts 338°
2026-04-26 05:49 -3.16633 47.51400 37962 ft 485 kts 338°
2026-04-26 05:50 -3.10435 47.48748 37961 ft 485 kts 338°
2026-04-26 05:50 -3.04220 47.46089 37959 ft 485 kts 338°
2026-04-26 05:51 -2.98049 47.43450 37961 ft 486 kts 338°
2026-04-26 05:51 -2.91842 47.40794 37959 ft 486 kts 338°
2026-04-26 05:52 -2.85616 47.38131 37956 ft 486 kts 338°
2026-04-26 05:52 -2.79386 47.35466 37961 ft 487 kts 338°
2026-04-26 05:53 -2.73217 47.32828 37961 ft 486 kts 338°
2026-04-26 05:53 -2.66991 47.30166 37958 ft 486 kts 338°
2026-04-26 05:54 -2.60762 47.27503 37960 ft 486 kts 338°
2026-04-26 05:54 -2.54588 47.24863 37959 ft 486 kts 338°
2026-04-26 05:55 -2.48380 47.22210 37964 ft 485 kts 338°
2026-04-26 05:55 -2.42165 47.19554 37956 ft 485 kts 338°
2026-04-26 05:56 -2.35963 47.16903 37962 ft 485 kts 338°
2026-04-26 05:56 -2.29767 47.14256 37960 ft 484 kts 338°
2026-04-26 05:57 -2.23580 47.11612 37962 ft 484 kts 338°
2026-04-26 05:57 -2.17430 47.08985 37965 ft 483 kts 338°
2026-04-26 05:58 -2.11248 47.06344 37963 ft 483 kts 338°
2026-04-26 05:58 -2.05077 47.03708 37961 ft 483 kts 338°
2026-04-26 05:59 -1.98904 47.01071 37962 ft 482 kts 339°
2026-04-26 05:59 -1.92767 46.98451 37958 ft 482 kts 339°
2026-04-26 06:00 -1.86603 46.95818 37958 ft 482 kts 339°
2026-04-26 06:00 -1.80450 46.93191 37964 ft 481 kts 339°
2026-04-26 06:01 -1.74298 46.90564 37957 ft 481 kts 339°
2026-04-26 06:01 -1.68168 46.87947 37960 ft 481 kts 339°
2026-04-26 06:02 -1.62018 46.85321 37962 ft 481 kts 339°
2026-04-26 06:02 -1.55863 46.82694 37966 ft 481 kts 339°
2026-04-26 06:03 -1.50739 46.80507 37960 ft 481 kts 339°
2026-04-26 06:03 -1.43581 46.77452 37963 ft 481 kts 339°
2026-04-26 06:04 -1.37428 46.74826 37961 ft 481 kts 339°
2026-04-26 06:04 -1.32264 46.72622 37963 ft 481 kts 339°
2026-04-26 06:05 -1.26149 46.70012 37963 ft 481 kts 339°
2026-04-26 06:05 -1.20002 46.67388 37962 ft 481 kts 339°
2026-04-26 06:06 -1.13839 46.64759 37962 ft 481 kts 339°
2026-04-26 06:06 -1.07697 46.62146 37962 ft 481 kts 339°
2026-04-26 06:07 -1.01578 46.59532 37963 ft 481 kts 339°
2026-04-26 06:07 -0.95426 46.56903 37963 ft 481 kts 339°
2026-04-26 06:08 -0.89267 46.54274 37964 ft 481 kts 339°
2026-04-26 06:08 -0.83110 46.51647 37963 ft 481 kts 339°
2026-04-26 06:09 -0.76990 46.49037 37964 ft 481 kts 339°
2026-04-26 06:09 -0.70832 46.46410 37958 ft 482 kts 339°
2026-04-26 06:10 -0.64670 46.43781 37959 ft 482 kts 339°
2026-04-26 06:10 -0.58500 46.41149 37956 ft 482 kts 339°
2026-04-26 06:11 -0.52368 46.38533 37963 ft 482 kts 339°
2026-04-26 06:11 -0.46195 46.35900 37961 ft 483 kts 339°
2026-04-26 06:12 -0.40012 46.33263 37961 ft 483 kts 339°
2026-04-26 06:12 -0.33825 46.30624 37964 ft 483 kts 339°
2026-04-26 06:13 -0.27643 46.27987 37959 ft 484 kts 339°
2026-04-26 06:13 -0.21485 46.25361 37956 ft 484 kts 339°
2026-04-26 06:14 -0.15300 46.22712 37961 ft 485 kts 338°
2026-04-26 06:14 -0.09118 46.19997 37961 ft 485 kts 338°
2026-04-26 06:15 -0.02931 46.17272 37960 ft 485 kts 338°
2026-04-26 06:15 0.03211 46.14577 37960 ft 486 kts 338°
2026-04-26 06:16 0.09408 46.11864 37959 ft 486 kts 338°
2026-04-26 06:16 0.15603 46.09152 37964 ft 486 kts 338°
2026-04-26 06:17 0.21791 46.06443 37963 ft 486 kts 338°
2026-04-26 06:17 0.27952 46.03746 37960 ft 486 kts 338°
2026-04-26 06:18 0.34135 46.01039 37957 ft 486 kts 338°
2026-04-26 06:18 0.40335 45.98324 37961 ft 486 kts 338°
2026-04-26 06:19 0.46537 45.95609 37965 ft 486 kts 338°
2026-04-26 06:19 0.52728 45.92898 37965 ft 486 kts 338°
2026-04-26 06:20 0.58876 45.90214 37966 ft 485 kts 339°
2026-04-26 06:20 0.65080 45.87556 37962 ft 485 kts 339°
2026-04-26 06:21 0.71295 45.84900 37963 ft 485 kts 339°
2026-04-26 06:21 0.77496 45.82243 37964 ft 485 kts 339°
2026-04-26 06:22 0.83711 45.79575 37963 ft 486 kts 339°
2026-04-26 06:22 0.89873 45.76929 37957 ft 486 kts 339°
2026-04-26 06:23 0.96095 45.74257 37967 ft 486 kts 339°
2026-04-26 06:23 1.02301 45.71593 37966 ft 486 kts 339°
2026-04-26 06:24 1.08530 45.68918 37968 ft 486 kts 339°
2026-04-26 06:24 1.14706 45.66266 37965 ft 486 kts 339°
2026-04-26 06:25 1.20914 45.63600 37970 ft 486 kts 339°
2026-04-26 06:25 1.27138 45.60928 37963 ft 486 kts 339°
2026-04-26 06:26 1.33351 45.58259 37966 ft 486 kts 339°
2026-04-26 06:26 1.39566 45.55590 37959 ft 486 kts 339°
2026-04-26 06:27 1.45742 45.52938 37965 ft 486 kts 339°
2026-04-26 06:27 1.51962 45.50266 37967 ft 486 kts 339°
2026-04-26 06:28 1.58168 45.47600 37965 ft 486 kts 339°
2026-04-26 06:28 1.64389 45.44928 37968 ft 486 kts 339°
2026-04-26 06:29 1.70593 45.42262 37973 ft 486 kts 339°
2026-04-26 06:29 1.76770 45.39609 37988 ft 486 kts 339°
2026-04-26 06:30 1.82985 45.36938 38001 ft 486 kts 339°
2026-04-26 06:30 1.89206 45.34265 38016 ft 487 kts 339°
2026-04-26 06:31 1.95427 45.31591 38022 ft 487 kts 339°
2026-04-26 06:31 2.01660 45.28913 38021 ft 487 kts 339°
2026-04-26 06:32 2.07834 45.26207 38024 ft 488 kts 338°
2026-04-26 06:32 2.14032 45.23436 38011 ft 488 kts 338°
2026-04-26 06:33 2.20229 45.20676 37997 ft 488 kts 338°
2026-04-26 06:33 2.26439 45.17921 37989 ft 488 kts 338°
2026-04-26 06:34 2.32617 45.15185 37977 ft 488 kts 338°
2026-04-26 06:34 2.38828 45.12433 37977 ft 488 kts 338°
2026-04-26 06:35 2.45043 45.09679 37975 ft 488 kts 338°
2026-04-26 06:35 2.51252 45.06927 37979 ft 489 kts 338°
2026-04-26 06:36 2.57473 45.04169 37977 ft 489 kts 339°
2026-04-26 06:36 2.63646 45.01433 37981 ft 489 kts 339°
2026-04-26 06:37 2.69855 44.98680 37982 ft 488 kts 339°
2026-04-26 06:37 2.76070 44.95924 37980 ft 488 kts 339°
2026-04-26 06:38 2.82287 44.93167 37981 ft 488 kts 339°
2026-04-26 06:38 2.88464 44.90428 37980 ft 488 kts 338°
2026-04-26 06:39 2.94677 44.87672 37976 ft 488 kts 339°
2026-04-26 06:39 3.00887 44.84917 37985 ft 489 kts 339°
2026-04-26 06:40 3.07100 44.82161 37985 ft 489 kts 338°
2026-04-26 06:40 3.13315 44.79403 37986 ft 489 kts 338°
2026-04-26 06:41 3.19484 44.76665 37992 ft 489 kts 338°
2026-04-26 06:41 3.25698 44.73907 37993 ft 489 kts 338°
2026-04-26 06:42 3.31927 44.71142 37989 ft 489 kts 338°
2026-04-26 06:42 3.38095 44.68403 37998 ft 489 kts 338°
2026-04-26 06:43 3.44311 44.65643 37996 ft 489 kts 338°
2026-04-26 06:43 3.50531 44.62881 37993 ft 489 kts 338°
2026-04-26 06:44 3.56767 44.60111 37999 ft 489 kts 338°
2026-04-26 06:44 3.62988 44.57348 37999 ft 490 kts 338°
2026-04-26 06:45 3.69173 44.54600 38003 ft 490 kts 338°
2026-04-26 06:45 3.75400 44.51833 38001 ft 490 kts 338°
2026-04-26 06:46 3.81644 44.49058 38002 ft 490 kts 338°
2026-04-26 06:46 3.87884 44.46284 38006 ft 491 kts 338°
2026-04-26 06:47 3.94075 44.43532 38005 ft 491 kts 338°
2026-04-26 06:47 4.00315 44.40757 38003 ft 491 kts 338°
2026-04-26 06:48 4.06564 44.37978 38009 ft 491 kts 338°
2026-04-26 06:48 4.12813 44.35199 38008 ft 491 kts 338°
2026-04-26 06:49 4.19047 44.32425 38008 ft 491 kts 338°
2026-04-26 06:49 4.25262 44.29660 38011 ft 491 kts 338°
2026-04-26 06:50 4.31494 44.26886 38010 ft 491 kts 338°
2026-04-26 06:50 4.37729 44.24111 38009 ft 490 kts 338°
2026-04-26 06:51 4.43966 44.21334 38006 ft 490 kts 338°
2026-04-26 06:51 4.53270 44.17191 38016 ft 489 kts 338°
2026-04-26 06:52 4.59483 44.14424 38015 ft 489 kts 338°
2026-04-26 06:52 4.65704 44.11653 38020 ft 489 kts 338°
2026-04-26 06:53 4.71933 44.08878 38014 ft 490 kts 338°
2026-04-26 06:53 4.78158 44.06103 38016 ft 490 kts 338°
2026-04-26 06:54 4.84345 44.03345 38014 ft 490 kts 338°
2026-04-26 06:54 4.90575 44.00568 38013 ft 490 kts 338°
2026-04-26 06:55 4.96794 43.97777 38011 ft 490 kts 338°
2026-04-26 06:55 5.03002 43.94943 38013 ft 490 kts 338°
2026-04-26 06:56 5.09176 43.92123 38012 ft 490 kts 338°
2026-04-26 06:56 5.15379 43.89299 38017 ft 490 kts 338°
2026-04-26 06:57 5.21587 43.86474 38021 ft 490 kts 338°
2026-04-26 06:57 5.27803 43.83646 38017 ft 490 kts 338°
2026-04-26 06:58 5.34020 43.80817 38017 ft 491 kts 338°
2026-04-26 06:58 5.40196 43.78005 38010 ft 491 kts 338°
2026-04-26 06:59 5.46421 43.75171 38015 ft 491 kts 338°
2026-04-26 06:59 5.52639 43.72339 38012 ft 491 kts 338°
2026-04-26 07:00 5.58852 43.69509 38020 ft 491 kts 338°
2026-04-26 07:00 5.65071 43.66675 38015 ft 490 kts 338°
2026-04-26 07:01 5.71292 43.63848 38013 ft 489 kts 338°
2026-04-26 07:01 5.77437 43.61057 38011 ft 489 kts 338°
2026-04-26 07:02 5.83624 43.58243 38009 ft 488 kts 338°
2026-04-26 07:02 5.89818 43.55427 38009 ft 487 kts 337°
2026-04-26 07:03 5.95982 43.52625 38004 ft 486 kts 337°
2026-04-26 07:03 6.02104 43.49841 38007 ft 486 kts 337°
2026-04-26 07:04 6.08259 43.47041 38009 ft 485 kts 337°
2026-04-26 07:04 6.14395 43.44249 38007 ft 484 kts 337°
2026-04-26 07:05 6.20532 43.41457 38011 ft 484 kts 337°
2026-04-26 07:05 6.26665 43.38665 38011 ft 484 kts 337°
2026-04-26 07:06 6.32753 43.35893 38008 ft 484 kts 337°
2026-04-26 07:06 6.38879 43.33103 38012 ft 484 kts 337°
2026-04-26 07:07 6.45024 43.30304 38016 ft 484 kts 337°
2026-04-26 07:07 6.51149 43.27513 38018 ft 484 kts 337°
2026-04-26 07:08 6.57258 43.24729 38023 ft 485 kts 337°
2026-04-26 07:08 6.63394 43.21932 38020 ft 485 kts 337°
2026-04-26 07:09 6.69544 43.19127 38013 ft 485 kts 337°
2026-04-26 07:09 6.75693 43.16322 38018 ft 485 kts 337°
2026-04-26 07:11 6.91018 43.09328 38020 ft 485 kts 337°
2026-04-26 07:11 6.97168 43.06520 38015 ft 485 kts 337°
2026-04-26 07:12 7.03324 43.03724 38018 ft 485 kts 337°
2026-04-26 07:12 7.09433 43.00945 38017 ft 485 kts 337°
2026-04-26 07:13 7.15583 42.98147 38019 ft 485 kts 337°
2026-04-26 07:13 7.21741 42.95345 38019 ft 485 kts 337°
2026-04-26 07:14 7.27890 42.92546 38017 ft 486 kts 337°
2026-04-26 07:14 7.34051 42.89741 38016 ft 486 kts 337°
2026-04-26 07:15 7.40175 42.86953 38016 ft 486 kts 337°
2026-04-26 07:15 7.46333 42.84147 38018 ft 486 kts 337°
2026-04-26 07:16 7.52490 42.81342 38016 ft 486 kts 337°
2026-04-26 07:16 7.58653 42.78533 38014 ft 486 kts 337°
2026-04-26 07:17 7.64807 42.75726 38007 ft 485 kts 337°
2026-04-26 07:17 7.70916 42.72940 38012 ft 485 kts 337°
2026-04-26 07:18 7.77079 42.70128 38011 ft 485 kts 337°
2026-04-26 07:18 7.83208 42.67330 38013 ft 484 kts 337°
2026-04-26 07:19 7.89319 42.64540 38014 ft 484 kts 337°
2026-04-26 07:19 7.95447 42.61742 38015 ft 484 kts 337°
2026-04-26 07:20 8.01574 42.58942 38014 ft 483 kts 337°
2026-04-26 07:20 8.07705 42.56140 38018 ft 483 kts 337°
2026-04-26 07:21 8.13827 42.53342 38020 ft 483 kts 337°
2026-04-26 07:21 8.19910 42.50560 38020 ft 483 kts 337°
2026-04-26 07:22 8.26032 42.47761 38027 ft 483 kts 337°
2026-04-26 07:22 8.32148 42.44967 38032 ft 483 kts 337°
2026-04-26 07:23 8.38270 42.42169 38028 ft 483 kts 337°
2026-04-26 07:23 8.44389 42.39374 38035 ft 483 kts 337°
2026-04-26 07:24 8.50474 42.36603 38034 ft 483 kts 337°
2026-04-26 07:24 8.56596 42.33804 38031 ft 483 kts 337°
2026-04-26 07:25 8.62725 42.31003 38038 ft 483 kts 337°
2026-04-26 07:25 8.68838 42.28209 38037 ft 483 kts 337°
2026-04-26 07:26 8.74919 42.25430 38043 ft 483 kts 337°
2026-04-26 07:26 8.81047 42.22629 38046 ft 483 kts 337°
2026-04-26 07:27 8.87171 42.19829 38047 ft 483 kts 337°
2026-04-26 07:27 8.93301 42.17024 38053 ft 483 kts 336°
2026-04-26 07:28 8.99380 42.14243 38059 ft 483 kts 336°
2026-04-26 07:28 9.05510 42.11436 38070 ft 483 kts 336°
2026-04-26 07:29 9.11631 42.08633 38072 ft 483 kts 336°
2026-04-26 07:29 9.17758 42.05826 38079 ft 483 kts 336°
2026-04-26 07:30 9.23857 42.03030 38082 ft 484 kts 336°
2026-04-26 07:30 9.29986 42.00220 38081 ft 484 kts 336°
2026-04-26 07:31 9.36112 41.97410 38080 ft 484 kts 336°
2026-04-26 07:31 9.42254 41.94592 38074 ft 484 kts 336°
2026-04-26 07:32 9.48386 41.91778 38066 ft 484 kts 336°
2026-04-26 07:32 9.54472 41.88983 38055 ft 484 kts 336°
2026-04-26 07:33 9.60617 41.86160 38041 ft 484 kts 336°
2026-04-26 07:33 9.66748 41.83331 38028 ft 485 kts 336°
2026-04-26 07:34 9.72757 41.80314 38016 ft 485 kts 334°
2026-04-26 07:34 9.78762 41.77212 38002 ft 485 kts 334°
2026-04-26 07:35 9.84791 41.74137 37994 ft 485 kts 334°
2026-04-26 07:35 9.90827 41.71087 37983 ft 485 kts 334°
2026-04-26 07:36 9.96866 41.68041 37982 ft 485 kts 334°
2026-04-26 07:36 10.02867 41.65012 37980 ft 485 kts 334°
2026-04-26 07:37 10.08909 41.61960 37979 ft 485 kts 334°
2026-04-26 07:37 10.14948 41.58907 37975 ft 485 kts 334°
2026-04-26 07:38 10.20991 41.55851 37975 ft 485 kts 334°
2026-04-26 07:38 10.26973 41.52824 37970 ft 485 kts 334°
2026-04-26 07:39 10.33014 41.49766 37975 ft 485 kts 334°
2026-04-26 07:39 10.39041 41.46714 37973 ft 484 kts 334°
2026-04-26 07:40 10.45070 41.43660 37977 ft 484 kts 334°
2026-04-26 07:40 10.51072 41.40618 37972 ft 484 kts 334°
2026-04-26 07:41 10.57107 41.37558 37972 ft 485 kts 334°
2026-04-26 07:41 10.63128 41.34504 37970 ft 485 kts 334°
2026-04-26 07:42 10.69128 41.31459 37967 ft 485 kts 334°
2026-04-26 07:42 10.75154 41.28400 37970 ft 485 kts 334°
2026-04-26 07:43 10.81190 41.25335 37970 ft 485 kts 334°
2026-04-26 07:43 10.87219 41.22270 37969 ft 485 kts 334°
2026-04-26 07:44 10.93261 41.19199 37963 ft 485 kts 334°
2026-04-26 07:44 10.99292 41.16131 37968 ft 485 kts 334°
2026-04-26 07:45 11.05287 41.13080 37964 ft 485 kts 334°
2026-04-26 07:45 11.11311 41.10013 37966 ft 485 kts 334°
2026-04-26 07:46 11.17345 41.06941 37961 ft 485 kts 334°
2026-04-26 07:46 11.23380 41.03865 37960 ft 485 kts 334°
2026-04-26 07:47 11.29376 41.00808 37958 ft 485 kts 334°
2026-04-26 07:47 11.35410 40.97731 37957 ft 485 kts 334°
2026-04-26 07:48 11.41438 40.94655 37960 ft 485 kts 334°
2026-04-26 07:48 11.47444 40.91589 37956 ft 485 kts 334°
2026-04-26 07:49 11.53467 40.88512 37955 ft 485 kts 334°
2026-04-26 07:49 11.59507 40.85426 37956 ft 485 kts 334°
2026-04-26 07:50 11.68538 40.80808 37959 ft 484 kts 334°
2026-04-26 07:50 11.74572 40.77720 37954 ft 484 kts 334°
2026-04-26 07:51 11.80546 40.74663 37960 ft 484 kts 334°
2026-04-26 07:51 11.86570 40.71578 37960 ft 484 kts 334°
2026-04-26 07:52 11.92583 40.68497 37959 ft 484 kts 334°
2026-04-26 07:52 11.98598 40.65413 37956 ft 484 kts 334°
2026-04-26 07:53 12.04580 40.62345 37958 ft 483 kts 334°
2026-04-26 07:53 12.10582 40.59264 37954 ft 483 kts 334°
2026-04-26 07:54 12.16587 40.56181 37950 ft 483 kts 334°
2026-04-26 07:54 12.22591 40.53097 37952 ft 482 kts 334°
2026-04-26 07:55 12.28550 40.50034 37951 ft 482 kts 334°
2026-04-26 07:55 12.34535 40.46957 37946 ft 482 kts 334°
2026-04-26 07:56 12.40519 40.43879 37943 ft 481 kts 334°
2026-04-26 07:56 12.46392 40.40609 37937 ft 482 kts 326°
2026-04-26 07:57 12.51862 40.36706 37937 ft 482 kts 326°
2026-04-26 07:57 12.57314 40.32698 37936 ft 483 kts 325°
2026-04-26 07:58 12.62764 40.28682 37940 ft 483 kts 325°
2026-04-26 07:58 12.68219 40.24673 37940 ft 483 kts 325°
2026-04-26 07:59 12.73652 40.20685 37943 ft 482 kts 325°
2026-04-26 07:59 12.79099 40.16685 37946 ft 482 kts 325°
2026-04-26 08:00 12.84548 40.12682 37952 ft 482 kts 325°
2026-04-26 08:00 12.90002 40.08673 37959 ft 482 kts 325°
2026-04-26 08:01 12.95435 40.04675 37965 ft 481 kts 325°
2026-04-26 08:01 13.00825 40.00707 37975 ft 481 kts 325°
2026-04-26 08:02 13.06258 39.96707 37982 ft 480 kts 325°
2026-04-26 08:02 13.11680 39.92711 37990 ft 479 kts 325°
2026-04-26 08:03 13.17062 39.88744 38002 ft 479 kts 325°
2026-04-26 08:03 13.22466 39.84758 38010 ft 479 kts 325°
2026-04-26 08:04 13.27873 39.80767 38018 ft 478 kts 325°
2026-04-26 08:04 13.33269 39.76782 38027 ft 478 kts 324°
2026-04-26 08:05 13.38663 39.72796 38035 ft 477 kts 324°
2026-04-26 08:05 13.44018 39.68838 38039 ft 477 kts 324°
2026-04-26 08:06 13.49385 39.64867 38049 ft 475 kts 324°
2026-04-26 08:06 13.54750 39.60896 38058 ft 475 kts 324°
2026-04-26 08:07 13.60114 39.56923 38061 ft 474 kts 324°
2026-04-26 08:07 13.65432 39.52983 38066 ft 474 kts 324°
2026-04-26 08:08 13.70772 39.49023 38059 ft 473 kts 324°
2026-04-26 08:08 13.76114 39.45060 38057 ft 473 kts 324°
2026-04-26 08:09 13.81441 39.41106 38057 ft 472 kts 324°
2026-04-26 08:09 13.86761 39.37155 38057 ft 471 kts 324°
2026-04-26 08:10 13.92044 39.33228 38049 ft 471 kts 324°
2026-04-26 08:10 13.97355 39.29279 38045 ft 471 kts 324°
2026-04-26 08:11 14.02668 39.25327 38041 ft 471 kts 324°
2026-04-26 08:11 14.07973 39.21378 38034 ft 470 kts 324°
2026-04-26 08:12 14.13234 39.17459 38034 ft 470 kts 324°
2026-04-26 08:12 14.18529 39.13513 38031 ft 469 kts 324°
2026-04-26 08:13 14.23822 39.09566 38022 ft 469 kts 324°
2026-04-26 08:13 14.29079 39.05643 38018 ft 470 kts 324°
2026-04-26 08:14 14.34395 39.01674 38005 ft 469 kts 324°
2026-04-26 08:14 14.39656 38.97744 37998 ft 469 kts 324°
2026-04-26 08:15 14.44963 38.93812 37989 ft 470 kts 326°
2026-04-26 08:15 14.50838 38.90913 37988 ft 471 kts 342°
2026-04-26 08:16 14.57288 38.89972 37988 ft 474 kts 357°
2026-04-26 08:16 14.63903 38.89941 37981 ft 476 kts 358°
2026-04-26 08:17 14.70518 38.89994 37984 ft 476 kts 358°
2026-04-26 08:17 14.77144 38.90026 37987 ft 476 kts 358°
2026-04-26 08:18 14.83775 38.90037 37996 ft 476 kts 358°
2026-04-26 08:18 14.90338 38.90043 37997 ft 476 kts 358°
2026-04-26 08:19 14.96963 38.90048 38008 ft 476 kts 358°
2026-04-26 08:19 15.03593 38.90055 38013 ft 476 kts 358°
2026-04-26 08:20 15.10184 38.90062 38013 ft 476 kts 358°
2026-04-26 08:20 15.16808 38.90069 38020 ft 476 kts 358°
2026-04-26 08:21 15.23440 38.90076 38015 ft 477 kts 358°
2026-04-26 08:21 15.30077 38.90087 38010 ft 477 kts 358°
2026-04-26 08:22 15.36710 38.90288 38006 ft 477 kts
2026-04-26 08:22 15.43310 38.90582 38002 ft 478 kts
2026-04-26 08:23 15.49946 38.90850 37991 ft 478 kts 360°
2026-04-26 08:23 15.56582 38.91094 37984 ft 478 kts 360°
2026-04-26 08:24 15.63228 38.91330 37974 ft 478 kts 359°
2026-04-26 08:24 15.69833 38.91566 37959 ft 477 kts 359°
2026-04-26 08:25 15.76463 38.91804 37954 ft 478 kts 359°
2026-04-26 08:25 15.83116 38.92043 37951 ft 478 kts 359°
2026-04-26 08:26 15.89757 38.92282 37938 ft 478 kts 359°
2026-04-26 08:26 15.96378 38.92520 37931 ft 479 kts 359°
2026-04-26 08:27 16.03026 38.92760 37927 ft 479 kts 359°
2026-04-26 08:27 16.09687 38.93001 37923 ft 479 kts 359°
2026-04-26 08:28 16.16353 38.93241 37909 ft 479 kts 359°
2026-04-26 08:28 16.23018 38.93482 37910 ft 480 kts 359°
2026-04-26 08:29 16.29648 38.93722 37911 ft 480 kts 359°
2026-04-26 08:29 16.36321 38.93963 37912 ft 480 kts 359°
2026-04-26 08:30 16.43006 38.94205 37912 ft 480 kts 359°
2026-04-26 08:30 16.49682 38.94447 37911 ft 480 kts 359°
2026-04-26 08:31 16.56313 38.94687 37903 ft 480 kts 359°
2026-04-26 08:31 16.63003 38.94930 37906 ft 481 kts 359°
2026-04-26 08:32 16.69694 38.95172 37907 ft 481 kts 359°
2026-04-26 08:32 16.76369 38.95415 37908 ft 481 kts 359°
2026-04-26 08:33 16.83025 38.95657 37902 ft 481 kts 359°
2026-04-26 08:33 16.89714 38.95900 37903 ft 481 kts 359°
2026-04-26 08:34 16.96408 38.96144 37899 ft 482 kts 358°
2026-04-26 08:34 17.03113 38.96388 37905 ft 482 kts 358°
2026-04-26 08:35 17.09816 38.96632 37898 ft 482 kts 358°
2026-04-26 08:35 17.16473 38.96875 37906 ft 482 kts 358°
2026-04-26 08:36 17.23185 38.97120 37890 ft 483 kts 358°
2026-04-26 08:36 17.28768 38.97324 37890 ft 483 kts 358°
2026-04-26 08:37 17.36581 38.97610 37892 ft 483 kts 358°
2026-04-26 08:37 17.43299 38.97856 37904 ft 484 kts 358°
2026-04-26 08:38 17.50024 38.98105 37899 ft 484 kts 358°
2026-04-26 08:38 17.55623 38.98302 37905 ft 484 kts 358°
2026-04-26 08:39 17.63451 38.98578 37900 ft 484 kts 358°
2026-04-26 08:39 17.70179 38.98819 37901 ft 484 kts 358°
2026-04-26 08:40 17.76918 38.99061 37902 ft 485 kts 358°
2026-04-26 08:40 17.82521 38.99263 37908 ft 485 kts 358°
2026-04-26 08:41 17.89268 38.99506 37911 ft 485 kts 358°
2026-04-26 08:41 17.97112 38.99788 37910 ft 486 kts 358°
2026-04-26 08:42 18.02776 38.99992 37912 ft 486 kts 358°
2026-04-26 08:42 18.09488 39.00234 37910 ft 486 kts 358°
2026-04-26 08:43 18.16262 39.00479 37908 ft 487 kts 358°
2026-04-26 08:43 18.23036 39.00784 37908 ft 488 kts 359°
2026-04-26 08:44 18.29811 39.01187 37909 ft 488 kts 359°
2026-04-26 08:44 18.36554 39.01583 37914 ft 489 kts 359°
2026-04-26 08:45 18.43336 39.01964 37919 ft 489 kts 359°
2026-04-26 08:45 18.50136 39.02340 37911 ft 489 kts 359°
2026-04-26 08:46 18.56933 39.02715 37914 ft 490 kts 359°
2026-04-26 08:46 18.63700 39.03089 37912 ft 490 kts 359°
2026-04-26 08:47 18.70511 39.03467 37921 ft 490 kts 359°
2026-04-26 08:47 18.77318 39.03844 37917 ft 490 kts 359°
2026-04-26 08:48 18.84137 39.04223 37918 ft 491 kts 359°
2026-04-26 08:48 18.90959 39.04602 37924 ft 491 kts 359°
2026-04-26 08:49 18.97738 39.04980 37923 ft 491 kts 359°
2026-04-26 08:49 19.04558 39.05359 37923 ft 491 kts 359°
2026-04-26 08:50 19.11383 39.05576 37919 ft 487 kts 352°
2026-04-26 08:50 19.17968 39.04294 37924 ft 480 kts 342°
2026-04-26 08:51 19.27621 39.01556 37923 ft 481 kts 341°
2026-04-26 08:52 19.34066 38.99694 37924 ft 481 kts 341°
2026-04-26 08:52 19.40528 38.97843 37925 ft 481 kts 341°
2026-04-26 08:53 19.46934 38.96015 37927 ft 480 kts 341°
2026-04-26 08:53 19.53391 38.94172 37925 ft 480 kts 341°
2026-04-26 08:54 19.59839 38.92329 37925 ft 480 kts 341°
2026-04-26 08:54 19.66288 38.90484 37926 ft 480 kts 340°
2026-04-26 08:55 19.72693 38.88650 37928 ft 479 kts 340°
2026-04-26 08:55 19.79122 38.86808 37923 ft 479 kts 340°
2026-04-26 08:56 19.85554 38.84963 37923 ft 478 kts 340°
2026-04-26 08:56 19.91981 38.83118 37925 ft 478 kts 340°
2026-04-26 08:57 19.98362 38.81284 37924 ft 478 kts 340°
2026-04-26 08:57 20.04772 38.79441 37930 ft 477 kts 340°
2026-04-26 08:58 20.11184 38.77596 37926 ft 477 kts 340°
2026-04-26 08:58 20.17585 38.75752 37930 ft 477 kts 340°
2026-04-26 08:59 20.24005 38.73901 37929 ft 477 kts 340°
2026-04-26 08:59 20.30409 38.72054 37929 ft 477 kts 340°
2026-04-26 09:00 20.36769 38.70217 37928 ft 477 kts 339°
2026-04-26 09:00 20.43175 38.68365 37933 ft 477 kts 339°
2026-04-26 09:01 20.49588 38.66510 37931 ft 477 kts 339°
2026-04-26 09:01 20.55938 38.64672 37934 ft 477 kts 339°
2026-04-26 09:02 20.62340 38.62816 37937 ft 477 kts 339°
2026-04-26 09:02 20.68746 38.60958 37941 ft 477 kts 339°
2026-04-26 09:03 20.75148 38.59100 37937 ft 477 kts 339°
2026-04-26 09:03 20.81647 38.57776 37928 ft 486 kts 352°
2026-04-26 09:04 20.88454 38.58577 37925 ft 502 kts 11°
2026-04-26 09:04 20.94871 38.61795 37921 ft 516 kts 25°
2026-04-26 09:05 21.00996 38.65825 37919 ft 518 kts 26°
2026-04-26 09:05 21.07075 38.69893 37924 ft 519 kts 26°
2026-04-26 09:06 21.13213 38.73960 37919 ft 519 kts 26°
2026-04-26 09:06 21.19359 38.78008 37916 ft 519 kts 26°
2026-04-26 09:07 21.25512 38.82058 37916 ft 519 kts 26°
2026-04-26 09:07 21.31641 38.86097 37913 ft 520 kts 26°
2026-04-26 09:08 21.37808 38.90167 37912 ft 520 kts 26°
2026-04-26 09:08 21.43969 38.94238 37904 ft 521 kts 26°
2026-04-26 09:09 21.50139 38.98320 37898 ft 521 kts 26°
2026-04-26 09:09 21.56276 39.02382 37891 ft 521 kts 26°
2026-04-26 09:10 21.62449 39.06454 37880 ft 520 kts 24°
2026-04-26 09:10 21.69054 39.09246 37887 ft 502 kts
2026-04-26 09:11 21.75867 39.09544 37886 ft 483 kts 345°
2026-04-26 09:11 21.82193 39.07593 37888 ft 471 kts 332°
2026-04-26 09:12 21.88229 39.04959 37895 ft 471 kts 331°
2026-04-26 09:12 21.94285 39.02259 37902 ft 471 kts 331°
2026-04-26 09:13 22.00341 38.99585 37904 ft 471 kts 332°
2026-04-26 09:13 22.06405 38.96924 37913 ft 471 kts 332°
2026-04-26 09:14 22.12477 38.94261 37909 ft 470 kts 332°
2026-04-26 09:14 22.18491 38.91620 37912 ft 470 kts 331°
2026-04-26 09:15 22.24546 38.88958 37913 ft 470 kts 331°
2026-04-26 09:15 22.30597 38.86294 37913 ft 470 kts 331°
2026-04-26 09:16 22.36644 38.83630 37919 ft 470 kts 331°
2026-04-26 09:16 22.42659 38.80977 37920 ft 470 kts 331°
2026-04-26 09:17 22.48715 38.78304 37918 ft 470 kts 331°
2026-04-26 09:17 22.54762 38.75632 37919 ft 470 kts 331°
2026-04-26 09:18 22.60816 38.72955 37919 ft 469 kts 331°
2026-04-26 09:18 22.66854 38.70279 37924 ft 469 kts 331°
2026-04-26 09:19 22.72863 38.67613 37921 ft 469 kts 331°
2026-04-26 09:19 22.78911 38.64934 37924 ft 469 kts 331°
2026-04-26 09:20 22.84952 38.62253 37921 ft 469 kts 330°
2026-04-26 09:20 22.90986 38.59571 37922 ft 468 kts 330°
2026-04-26 09:21 22.96972 38.56907 37932 ft 468 kts 330°
2026-04-26 09:21 23.02997 38.54224 37927 ft 468 kts 330°
2026-04-26 09:22 23.09007 38.51544 37925 ft 468 kts 330°
2026-04-26 09:22 23.15024 38.48859 37931 ft 467 kts 330°
2026-04-26 09:23 23.21038 38.46173 37930 ft 467 kts 330°
2026-04-26 09:23 23.27007 38.43504 37932 ft 467 kts 330°
2026-04-26 09:24 23.33026 38.40810 37933 ft 467 kts 330°
2026-04-26 09:24 23.39023 38.38124 37931 ft 467 kts 330°
2026-04-26 09:25 23.45026 38.35432 37930 ft 466 kts 330°
2026-04-26 09:25 23.50987 38.32756 37927 ft 466 kts 330°
2026-04-26 09:26 23.56981 38.30063 37929 ft 466 kts 329°
2026-04-26 09:26 23.62974 38.27368 37918 ft 466 kts 329°
2026-04-26 09:27 23.68973 38.24662 37915 ft 466 kts 329°
2026-04-26 09:27 23.74967 38.21960 37924 ft 466 kts 329°
2026-04-26 09:28 23.80913 38.19280 37911 ft 466 kts 329°
2026-04-26 09:28 23.86906 38.16574 37899 ft 466 kts 329°
2026-04-26 09:29 23.92898 38.13865 37882 ft 466 kts 329°
2026-04-26 09:29 23.98838 38.11176 37872 ft 465 kts 329°
2026-04-26 09:30 24.04818 38.08467 37858 ft 465 kts 329°
2026-04-26 09:30 24.10799 38.05754 37858 ft 465 kts 329°
2026-04-26 09:31 24.16515 38.02644 37863 ft 453 kts 319°
2026-04-26 09:31 24.21748 37.98822 37863 ft 451 kts 317°
2026-04-26 09:32 24.26878 37.94961 37856 ft 451 kts 317°
2026-04-26 09:32 24.32040 37.91068 37858 ft 451 kts 317°
2026-04-26 09:33 24.37206 37.87182 37861 ft 450 kts 317°
2026-04-26 09:33 24.42380 37.83291 37867 ft 450 kts 317°
2026-04-26 09:34 24.47548 37.79402 37873 ft 450 kts 317°
2026-04-26 09:34 24.52680 37.75536 37880 ft 450 kts 317°
2026-04-26 09:35 24.57822 37.71658 37874 ft 449 kts 317°
2026-04-26 09:35 24.62982 37.67760 37897 ft 449 kts 317°
2026-04-26 09:36 24.68102 37.63891 37895 ft 449 kts 317°
2026-04-26 09:36 24.73248 37.59998 37903 ft 449 kts 317°
2026-04-26 09:37 24.78400 37.56096 37911 ft 449 kts 317°
2026-04-26 09:37 24.83538 37.52202 37912 ft 448 kts 317°
2026-04-26 09:38 24.88668 37.48309 37915 ft 449 kts 317°
2026-04-26 09:38 24.93783 37.44422 37922 ft 449 kts 316°
2026-04-26 09:39 24.98918 37.40515 37920 ft 449 kts 316°
2026-04-26 09:39 25.04064 37.36598 37919 ft 449 kts 316°
2026-04-26 09:40 25.09210 37.32677 37926 ft 449 kts 316°
2026-04-26 09:40 25.14319 37.28780 37929 ft 449 kts 316°
2026-04-26 09:41 25.19450 37.24861 37924 ft 449 kts 316°
2026-04-26 09:41 25.24589 37.20933 37931 ft 449 kts 316°
2026-04-26 09:42 25.29722 37.17007 37929 ft 449 kts 316°
2026-04-26 09:42 25.34827 37.13095 37931 ft 449 kts 316°
2026-04-26 09:43 25.39955 37.09162 37927 ft 449 kts 316°
2026-04-26 09:43 25.45087 37.05229 37925 ft 448 kts 316°
2026-04-26 09:44 25.50201 37.01293 37918 ft 448 kts 316°
2026-04-26 09:44 25.55319 36.97351 37918 ft 448 kts 316°
2026-04-26 09:45 25.60429 36.93414 37913 ft 447 kts 316°
2026-04-26 09:45 25.65504 36.89500 37912 ft 447 kts 316°
2026-04-26 09:46 25.70608 36.85560 37915 ft 447 kts 315°
2026-04-26 09:46 25.75710 36.81624 37913 ft 447 kts 315°
2026-04-26 09:47 25.80774 36.77704 37917 ft 446 kts 315°
2026-04-26 09:47 25.85861 36.73760 37910 ft 446 kts 315°
2026-04-26 09:48 25.90953 36.69811 37913 ft 446 kts 315°
2026-04-26 09:48 25.96031 36.65870 37909 ft 445 kts 315°
2026-04-26 09:49 26.01107 36.61927 37913 ft 445 kts 315°
2026-04-26 09:49 26.06147 36.58006 37901 ft 445 kts 315°
2026-04-26 09:50 26.11211 36.54064 37910 ft 444 kts 315°
2026-04-26 09:50 26.16259 36.50115 37912 ft 442 kts 314°
2026-04-26 09:51 26.20731 36.45611 37914 ft 430 kts 306°
2026-04-26 09:51 26.24905 36.40844 37915 ft 429 kts 305°
2026-04-26 09:52 26.29020 36.36081 37916 ft 429 kts 305°
2026-04-26 09:52 26.35236 36.28893 37914 ft 429 kts 305°
2026-04-26 09:53 26.39369 36.24119 37914 ft 429 kts 305°
2026-04-26 09:53 26.43514 36.19327 37913 ft 428 kts 304°
2026-04-26 09:54 26.47616 36.14579 37914 ft 428 kts 304°
2026-04-26 09:54 26.51746 36.09792 37911 ft 428 kts 304°
2026-04-26 09:55 26.55870 36.05008 37919 ft 427 kts 304°
2026-04-26 09:55 26.60001 36.00209 37912 ft 427 kts 304°
2026-04-26 09:56 26.64114 35.95427 37916 ft 427 kts 304°
2026-04-26 09:56 26.68200 35.90671 37921 ft 427 kts 304°
2026-04-26 09:57 26.72310 35.85881 37923 ft 427 kts 304°
2026-04-26 09:57 26.76414 35.81092 37926 ft 427 kts 304°
2026-04-26 09:58 26.80522 35.76301 37923 ft 427 kts 304°
2026-04-26 09:58 26.84604 35.71532 37928 ft 427 kts 304°
2026-04-26 09:59 26.88699 35.66733 37932 ft 427 kts 304°
2026-04-26 09:59 26.92803 35.61921 37928 ft 427 kts 304°
2026-04-26 10:00 26.96904 35.57111 37929 ft 426 kts 304°
2026-04-26 10:00 27.00973 35.52333 37934 ft 426 kts 304°
2026-04-26 10:01 27.05065 35.47523 37933 ft 426 kts 304°
2026-04-26 10:01 27.09157 35.42707 37935 ft 426 kts 304°
2026-04-26 10:02 27.13249 35.37885 37938 ft 426 kts 303°
2026-04-26 10:02 27.17330 35.33072 37939 ft 426 kts 303°
2026-04-26 10:03 27.21407 35.28258 37937 ft 425 kts 303°
2026-04-26 10:03 27.25456 35.23470 37937 ft 425 kts 303°
2026-04-26 10:04 27.29520 35.18660 37941 ft 424 kts 303°
2026-04-26 10:04 27.33583 35.13845 37939 ft 424 kts 303°
2026-04-26 10:05 27.37635 35.09038 37931 ft 423 kts 303°
2026-04-26 10:05 27.41685 35.04229 37920 ft 423 kts 303°
2026-04-26 10:06 27.45700 34.99455 37927 ft 422 kts 303°
2026-04-26 10:06 27.49730 34.94658 37924 ft 422 kts 303°
2026-04-26 10:07 27.53822 34.89900 37924 ft 425 kts 306°
2026-04-26 10:07 27.58184 34.85366 37924 ft 427 kts 307°
2026-04-26 10:08 27.62547 34.80885 37925 ft 427 kts 307°
2026-04-26 10:08 27.66893 34.76332 37921 ft 426 kts 306°
2026-04-26 10:09 27.71215 34.71756 37923 ft 426 kts 306°
2026-04-26 10:09 27.75526 34.67181 37921 ft 426 kts 306°
2026-04-26 10:10 27.79846 34.62593 37928 ft 426 kts 306°
2026-04-26 10:10 27.84124 34.58047 37929 ft 426 kts 306°
2026-04-26 10:11 27.88443 34.53453 37937 ft 426 kts 306°
2026-04-26 10:11 27.92760 34.48855 37941 ft 426 kts 306°
2026-04-26 10:12 27.97070 34.44260 37926 ft 426 kts 306°
2026-04-26 10:12 28.01111 34.39510 37936 ft 418 kts 301°
2026-04-26 10:13 28.04813 34.34458 37939 ft 417 kts 300°
2026-04-26 10:13 28.08484 34.29367 37942 ft 417 kts 300°
2026-04-26 10:14 28.12158 34.24265 37938 ft 417 kts 300°
2026-04-26 10:14 28.15811 34.19197 37944 ft 418 kts 300°
2026-04-26 10:15 28.19478 34.14106 37952 ft 418 kts 300°
2026-04-26 10:15 28.23155 34.08999 37956 ft 418 kts 300°
2026-04-26 10:16 28.26826 34.03892 37956 ft 417 kts 300°
2026-04-26 10:16 28.30466 33.98823 37960 ft 418 kts 300°
2026-04-26 10:17 28.34136 33.93706 37956 ft 419 kts 300°
2026-04-26 10:17 28.37808 33.88579 37943 ft 419 kts 300°
2026-04-26 10:18 28.41486 33.83444 37932 ft 419 kts 300°
2026-04-26 10:18 28.45162 33.78294 37942 ft 420 kts 300°
2026-04-26 10:19 28.48814 33.73170 37944 ft 421 kts 300°
2026-04-26 10:19 28.52485 33.68013 37961 ft 420 kts 300°
2026-04-26 10:20 28.55539 33.63726 37956 ft 419 kts 300°
2026-04-26 10:20 28.59847 33.57674 37961 ft 422 kts 300°
2026-04-26 10:21 28.63542 33.52479 37960 ft 422 kts 300°
2026-04-26 10:21 28.67201 33.47320 37962 ft 422 kts 300°
2026-04-26 10:22 28.70881 33.42123 37963 ft 422 kts 300°
2026-04-26 10:22 28.74564 33.36917 37957 ft 422 kts 300°
2026-04-26 10:23 28.78251 33.31700 37960 ft 422 kts 300°
2026-04-26 10:23 28.81913 33.26513 37965 ft 422 kts 300°
2026-04-26 10:24 28.85590 33.21298 37965 ft 422 kts 300°
2026-04-26 10:24 28.89270 33.16071 37964 ft 422 kts 300°
2026-04-26 10:25 28.92948 33.10840 37970 ft 423 kts 300°
2026-04-26 10:25 28.96628 33.05599 37966 ft 423 kts 300°
2026-04-26 10:26 29.00277 33.00398 37972 ft 423 kts 300°
2026-04-26 10:26 29.03950 32.95154 37975 ft 423 kts 300°
2026-04-26 10:27 29.07622 32.89906 37966 ft 423 kts 300°
2026-04-26 10:27 29.11296 32.84647 37988 ft 423 kts 300°
2026-04-26 10:28 29.14935 32.79433 37980 ft 423 kts 300°
2026-04-26 10:28 29.18606 32.74165 37981 ft 423 kts 300°
2026-04-26 10:29 29.22277 32.68893 37982 ft 423 kts 300°
2026-04-26 10:29 29.25948 32.63613 37985 ft 424 kts 300°
2026-04-26 10:30 29.29589 32.58374 37986 ft 424 kts 300°
2026-04-26 10:30 29.33237 32.53075 37990 ft 424 kts 299°
2026-04-26 10:31 29.36884 32.47742 37996 ft 425 kts 299°
2026-04-26 10:31 29.40526 32.42416 37998 ft 425 kts 299°
2026-04-26 10:32 29.44143 32.37131 38000 ft 425 kts 299°
2026-04-26 10:32 29.47787 32.31801 38006 ft 425 kts 299°
2026-04-26 10:33 29.51440 32.26449 38008 ft 425 kts 299°
2026-04-26 10:33 29.55084 32.21105 38015 ft 426 kts 299°
2026-04-26 10:34 29.58735 32.15745 38009 ft 426 kts 299°
2026-04-26 10:34 29.62377 32.10392 38018 ft 426 kts 299°
2026-04-26 10:35 29.66002 32.05054 38021 ft 426 kts 299°
2026-04-26 10:35 29.69647 31.99680 38020 ft 426 kts 299°
2026-04-26 10:36 29.73295 31.94294 38020 ft 427 kts 299°
2026-04-26 10:36 29.76943 31.88903 38023 ft 427 kts 299°
2026-04-26 10:37 29.80545 31.83531 38008 ft 426 kts 298°
2026-04-26 10:37 29.84071 31.78048 38008 ft 426 kts 298°
2026-04-26 10:38 29.87508 31.72670 38003 ft 426 kts 298°
2026-04-26 10:38 29.91018 31.67208 38004 ft 427 kts 298°
2026-04-26 10:39 29.94577 31.61681 38000 ft 427 kts 298°
2026-04-26 10:39 29.98094 31.56216 37996 ft 427 kts 298°
2026-04-26 10:40 30.01632 31.50707 37991 ft 428 kts 298°
2026-04-26 10:40 30.05177 31.45182 38000 ft 428 kts 298°
2026-04-26 10:41 30.08742 31.39719 37995 ft 432 kts 302°
2026-04-26 10:41 30.13038 31.34722 37978 ft 441 kts 308°
2026-04-26 10:42 30.16775 31.30706 37984 ft 442 kts 308°
2026-04-26 10:42 30.22061 31.25067 37989 ft 443 kts 308°
2026-04-26 10:43 30.26574 31.20226 37992 ft 443 kts 308°
2026-04-26 10:43 30.31049 31.15406 37992 ft 443 kts 308°
2026-04-26 10:44 30.35562 31.10537 37992 ft 444 kts 308°
2026-04-26 10:44 30.40076 31.05660 37984 ft 444 kts 308°
2026-04-26 10:45 30.44593 31.00774 37989 ft 444 kts 308°
2026-04-26 10:45 30.49089 30.95904 37995 ft 445 kts 308°
2026-04-26 10:46 30.53611 30.91001 37993 ft 445 kts 308°
2026-04-26 10:46 30.58134 30.86089 37994 ft 446 kts 308°
2026-04-26 10:47 30.62656 30.81171 37993 ft 446 kts 308°
2026-04-26 10:47 30.67192 30.76232 37991 ft 447 kts 308°
2026-04-26 10:48 30.71693 30.71325 37986 ft 447 kts 308°
2026-04-26 10:48 30.76227 30.66375 37988 ft 448 kts 308°
2026-04-26 10:49 30.80770 30.61409 37984 ft 448 kts 309°
2026-04-26 10:49 30.85311 30.56438 37984 ft 448 kts 309°
2026-04-26 10:50 30.89088 30.52298 37983 ft 449 kts 309°
2026-04-26 10:50 30.94367 30.46503 37983 ft 449 kts 309°
2026-04-26 10:51 31.01189 30.39001 37977 ft 450 kts 309°
2026-04-26 10:52 31.05718 30.33964 37983 ft 447 kts 306°
2026-04-26 10:52 31.09342 30.28250 37987 ft 433 kts 292°
2026-04-26 10:53 31.11520 30.21837 37984 ft 426 kts 283°
2026-04-26 10:53 31.13323 30.15232 37998 ft 427 kts 283°
2026-04-26 10:54 31.15985 30.05309 37992 ft 428 kts 283°
2026-04-26 10:54 31.17795 29.98680 37993 ft 429 kts 284°
2026-04-26 10:55 31.20473 29.92397 37998 ft 440 kts 298°
2026-04-26 10:55 31.23420 29.87528 37994 ft 442 kts 300°
2026-04-26 10:56 31.27657 29.80793 37999 ft 443 kts 300°
2026-04-26 10:56 31.31308 29.74978 37996 ft 444 kts 300°
2026-04-26 10:57 31.34924 29.69179 37995 ft 444 kts 300°
2026-04-26 10:57 31.38560 29.63326 37997 ft 445 kts 300°
2026-04-26 10:58 31.42197 29.57463 37986 ft 445 kts 300°
2026-04-26 10:58 31.45830 29.51597 37991 ft 446 kts 300°
2026-04-26 10:59 31.49453 29.45740 37989 ft 446 kts 300°
2026-04-26 10:59 31.53094 29.39845 37988 ft 447 kts 300°
2026-04-26 11:00 31.56739 29.33936 37989 ft 448 kts 300°
2026-04-26 11:00 31.60393 29.28010 37994 ft 448 kts 300°
2026-04-26 11:01 31.64037 29.22067 37992 ft 449 kts 300°
2026-04-26 11:01 31.67652 29.16147 37990 ft 449 kts 300°
2026-04-26 11:02 31.71295 29.10193 37990 ft 451 kts 300°
2026-04-26 11:02 31.75645 29.04782 37996 ft 462 kts 313°
2026-04-26 11:03 31.80601 28.99928 37988 ft 465 kts 314°
2026-04-26 11:03 31.85623 28.95130 37987 ft 465 kts 314°
2026-04-26 11:04 31.90611 28.90347 37985 ft 466 kts 314°
2026-04-26 11:04 31.95626 28.85508 37981 ft 466 kts 314°
2026-04-26 11:05 32.00632 28.80662 37978 ft 466 kts 314°
2026-04-26 11:05 32.05646 28.75801 37975 ft 467 kts 314°
2026-04-26 11:06 32.09821 28.71750 37979 ft 467 kts 314°
2026-04-26 11:06 32.15656 28.66079 37972 ft 468 kts 314°
2026-04-26 11:07 32.20685 28.61184 37969 ft 468 kts 314°
2026-04-26 11:07 32.25706 28.56290 37972 ft 469 kts 314°
2026-04-26 11:08 32.29879 28.52216 37967 ft 469 kts 314°
2026-04-26 11:08 32.35729 28.46497 37964 ft 469 kts 314°
2026-04-26 11:09 32.40767 28.41565 37958 ft 470 kts 314°
2026-04-26 11:09 32.45792 28.36636 37961 ft 470 kts 314°
2026-04-26 11:10 32.49978 28.32526 37962 ft 470 kts 315°
2026-04-26 11:10 32.55838 28.26763 37962 ft 471 kts 315°
2026-04-26 11:11 32.60864 28.21812 37958 ft 471 kts 315°
2026-04-26 11:11 32.65905 28.16839 37952 ft 471 kts 315°
2026-04-26 11:12 32.70102 28.12693 37954 ft 471 kts 315°
2026-04-26 11:12 32.75138 28.07711 37953 ft 472 kts 315°
2026-04-26 11:13 32.80163 28.02728 37943 ft 469 kts 316°
2026-04-26 11:13 32.85163 27.97769 37946 ft 468 kts 316°
2026-04-26 11:14 32.90123 27.92842 37945 ft 468 kts 316°
2026-04-26 11:14 32.95130 27.87857 37943 ft 469 kts 316°
2026-04-26 11:15 33.00128 27.82875 37940 ft 469 kts 316°
2026-04-26 11:15 33.05125 27.77886 37942 ft 469 kts 316°
2026-04-26 11:16 33.10106 27.72905 37943 ft 470 kts 316°
2026-04-26 11:16 33.15106 27.67898 37939 ft 470 kts 316°
2026-04-26 11:17 33.20112 27.62877 37941 ft 470 kts 317°
2026-04-26 11:17 33.25127 27.57839 37942 ft 471 kts 317°
2026-04-26 11:18 33.30108 27.52827 37941 ft 471 kts 317°
2026-04-26 11:18 33.35143 27.47755 37942 ft 471 kts 317°
2026-04-26 11:19 33.40125 27.42726 37944 ft 471 kts 317°
2026-04-26 11:19 33.45136 27.37662 37945 ft 471 kts 317°
2026-04-26 11:20 33.50149 27.32587 37949 ft 471 kts 317°
2026-04-26 11:20 33.55144 27.27522 37942 ft 471 kts 317°
2026-04-26 11:21 33.60118 27.22471 37948 ft 471 kts 317°
2026-04-26 11:21 33.65109 27.17394 37951 ft 470 kts 317°
2026-04-26 11:22 33.70086 27.12324 37956 ft 470 kts 317°
2026-04-26 11:22 33.75067 27.07242 37941 ft 469 kts 317°
2026-04-26 11:23 33.80011 27.02189 37958 ft 469 kts 317°
2026-04-26 11:23 33.84978 26.97104 37964 ft 469 kts 318°
2026-04-26 11:24 33.89945 26.92012 37948 ft 469 kts 318°
2026-04-26 11:24 33.94906 26.86918 37967 ft 468 kts 318°
2026-04-26 11:25 33.99830 26.81854 37952 ft 468 kts 318°
2026-04-26 11:25 34.04930 26.76883 37961 ft 469 kts 321°
2026-04-26 11:26 34.10123 26.72188 37960 ft 469 kts 321°
2026-04-26 11:26 34.15335 26.67434 37961 ft 470 kts 321°
2026-04-26 11:27 34.20513 26.62635 37961 ft 470 kts 321°
2026-04-26 11:27 34.25687 26.57806 37962 ft 470 kts 321°
2026-04-26 11:28 34.30837 26.52992 37961 ft 471 kts 321°
2026-04-26 11:28 34.36015 26.48147 37963 ft 471 kts 321°
2026-04-26 11:29 34.41195 26.43293 37966 ft 471 kts 321°
2026-04-26 11:29 34.46383 26.38425 37964 ft 471 kts 321°
2026-04-26 11:30 34.50688 26.34379 37966 ft 471 kts 321°
2026-04-26 11:30 34.56702 26.28718 37964 ft 471 kts 321°
2026-04-26 11:31 34.61867 26.23848 37964 ft 470 kts 321°
2026-04-26 11:31 34.67030 26.18971 37964 ft 470 kts 321°
2026-04-26 11:32 34.72191 26.14089 37970 ft 470 kts 321°
2026-04-26 11:32 34.77299 26.09248 37966 ft 469 kts 321°
2026-04-26 11:33 34.82447 26.04362 37970 ft 469 kts 322°
2026-04-26 11:33 34.87601 25.99463 37972 ft 469 kts 322°
2026-04-26 11:34 34.92737 25.94572 37971 ft 470 kts 322°
2026-04-26 11:34 34.97857 25.89689 37973 ft 470 kts 322°
2026-04-26 11:35 35.02998 25.84777 37977 ft 470 kts 322°
2026-04-26 11:35 35.08145 25.79851 37979 ft 470 kts 322°
2026-04-26 11:36 35.13291 25.74923 37984 ft 470 kts 322°
2026-04-26 11:36 35.18414 25.69973 37989 ft 470 kts 322°
2026-04-26 11:37 35.23512 25.65044 37998 ft 469 kts 322°
2026-04-26 11:37 35.28642 25.60103 38003 ft 469 kts 322°
2026-04-26 11:38 35.33753 25.55172 38006 ft 468 kts 322°
2026-04-26 11:38 35.38837 25.50261 38011 ft 467 kts 322°
2026-04-26 11:39 35.43933 25.45329 38014 ft 467 kts 322°
2026-04-26 11:39 35.49022 25.40396 38016 ft 466 kts 322°
2026-04-26 11:40 35.54100 25.35465 38016 ft 465 kts 322°
2026-04-26 11:40 35.59174 25.30531 38010 ft 465 kts 322°
2026-04-26 11:42 35.79389 25.10788 38031 ft 464 kts 322°
2026-04-26 11:43 35.84441 25.05834 38026 ft 464 kts 322°
2026-04-26 11:43 35.89459 25.00904 38027 ft 464 kts 322°
2026-04-26 11:44 35.94507 24.95937 38027 ft 464 kts 322°
2026-04-26 11:44 35.99540 24.90977 38022 ft 464 kts 322°
2026-04-26 11:45 36.04583 24.85998 38027 ft 464 kts 322°
2026-04-26 11:45 36.09629 24.81018 38032 ft 464 kts 322°
2026-04-26 11:46 36.14625 24.76062 38021 ft 463 kts 322°
2026-04-26 11:46 36.19645 24.71071 38036 ft 463 kts 322°
2026-04-26 11:47 36.24674 24.66067 38033 ft 463 kts 322°
2026-04-26 11:47 36.29659 24.61101 38032 ft 462 kts 322°
2026-04-26 11:48 36.34671 24.56100 38033 ft 462 kts 322°
2026-04-26 11:48 36.39675 24.51098 38033 ft 462 kts 322°
2026-04-26 11:49 36.44684 24.46083 38038 ft 462 kts 322°
2026-04-26 11:49 36.49682 24.41071 38038 ft 462 kts 322°
2026-04-26 11:50 36.54653 24.36076 38038 ft 462 kts 322°
2026-04-26 11:50 36.59645 24.31049 38037 ft 462 kts 322°
2026-04-26 11:51 36.64639 24.26014 38039 ft 462 kts 322°
2026-04-26 11:51 36.69628 24.20976 38043 ft 462 kts 322°
2026-04-26 11:52 36.74609 24.15936 38040 ft 462 kts 322°
2026-04-26 11:52 36.79559 24.10919 38042 ft 462 kts 322°
2026-04-26 11:53 36.84548 24.05855 38043 ft 462 kts 322°
2026-04-26 11:54 36.92011 23.98263 38043 ft 462 kts 322°
2026-04-26 11:54 36.96962 23.93220 38039 ft 461 kts 322°
2026-04-26 11:55 37.01932 23.88151 38041 ft 462 kts 322°
2026-04-26 11:55 37.06913 23.83061 38042 ft 462 kts 322°
2026-04-26 11:56 37.11880 23.77976 38042 ft 462 kts 322°
2026-04-26 11:56 37.16865 23.72864 38037 ft 462 kts 322°
2026-04-26 11:57 37.21798 23.67797 38041 ft 462 kts 321°
2026-04-26 11:57 37.26761 23.62689 38038 ft 462 kts 321°
2026-04-26 11:58 37.31737 23.57560 38038 ft 462 kts 321°
2026-04-26 11:58 37.36695 23.52439 38042 ft 462 kts 321°
2026-04-26 11:59 37.41668 23.47295 38036 ft 463 kts 321°
2026-04-26 11:59 37.46610 23.42172 38035 ft 463 kts 321°
2026-04-26 12:00 37.51572 23.37020 38038 ft 463 kts 321°
2026-04-26 12:00 37.56538 23.31856 38038 ft 463 kts 321°
2026-04-26 12:01 37.61504 23.26682 38033 ft 463 kts 321°
2026-04-26 12:01 37.66437 23.21533 38038 ft 463 kts 321°
2026-04-26 12:02 37.71391 23.16352 38039 ft 463 kts 321°
2026-04-26 12:02 37.76343 23.11165 38037 ft 463 kts 321°
2026-04-26 12:03 37.81299 23.05965 38032 ft 463 kts 321°
2026-04-26 12:03 37.86255 23.00753 38027 ft 463 kts 320°
2026-04-26 12:04 37.91178 22.95569 38038 ft 463 kts 320°
2026-04-26 12:04 37.96118 22.90318 38037 ft 463 kts 319°
2026-04-26 12:05 38.00947 22.84934 38037 ft 463 kts 319°
2026-04-26 12:05 38.05769 22.79518 38038 ft 463 kts 319°
2026-04-26 12:06 38.10567 22.74162 38039 ft 463 kts 319°
2026-04-26 12:06 38.15405 22.68773 38040 ft 463 kts 319°
2026-04-26 12:07 38.20246 22.63374 38044 ft 462 kts 319°
2026-04-26 12:07 38.25073 22.57980 38043 ft 462 kts 319°
2026-04-26 12:08 38.29906 22.52568 38042 ft 462 kts 319°
2026-04-26 12:08 38.34695 22.47194 38041 ft 462 kts 318°
2026-04-26 12:09 38.39513 22.41778 38043 ft 462 kts 318°
2026-04-26 12:09 38.44326 22.36358 38039 ft 462 kts 318°
2026-04-26 12:10 38.49142 22.30924 38044 ft 462 kts 318°
2026-04-26 12:10 38.53919 22.25525 38038 ft 462 kts 318°
2026-04-26 12:11 38.58736 22.20070 38042 ft 462 kts 318°
2026-04-26 12:11 38.63532 22.14629 38039 ft 462 kts 318°
2026-04-26 12:12 38.68340 22.09164 38041 ft 462 kts 318°
2026-04-26 12:12 38.73109 22.03733 38041 ft 462 kts 317°
2026-04-26 12:13 38.77913 21.98252 38039 ft 462 kts 317°
2026-04-26 12:13 38.82714 21.92764 38041 ft 462 kts 317°
2026-04-26 12:14 38.87506 21.87277 38040 ft 462 kts 317°
2026-04-26 12:14 38.92268 21.81812 38040 ft 462 kts 317°
2026-04-26 12:15 38.97052 21.76311 38041 ft 462 kts 317°
2026-04-26 12:15 39.01846 21.70790 38038 ft 462 kts 317°
2026-04-26 12:16 39.06628 21.65273 38038 ft 462 kts 317°
2026-04-26 12:16 39.11416 21.59737 38041 ft 463 kts 317°
2026-04-26 12:17 39.16170 21.54231 38045 ft 463 kts 317°
2026-04-26 12:17 39.20954 21.48680 38042 ft 463 kts 317°
2026-04-26 12:18 39.25734 21.43122 38044 ft 462 kts 316°
2026-04-26 12:18 39.30488 21.37581 38041 ft 462 kts 316°
2026-04-26 12:19 39.35193 21.32087 38045 ft 462 kts 316°
2026-04-26 12:19 39.39961 21.26514 38050 ft 462 kts 316°
2026-04-26 12:20 39.44704 21.20957 38048 ft 462 kts 316°
2026-04-26 12:20 39.49503 21.15322 38045 ft 469 kts 316°
2026-04-26 12:21 39.54343 21.09631 37892 ft 466 kts 316°
2026-04-26 12:21 39.56743 21.06807 37763 ft 463 kts 316°
2026-04-26 12:21 39.59123 21.04000 37638 ft 462 kts 316°
2026-04-26 12:21 39.61463 21.01237 37495 ft 462 kts 316°
2026-04-26 12:22 39.63813 20.98460 37370 ft 463 kts 316°
2026-04-26 12:22 39.66209 20.95627 37253 ft 464 kts 316°
2026-04-26 12:22 39.68589 20.92811 37107 ft 464 kts 316°
2026-04-26 12:23 39.73356 20.87159 37044 ft 464 kts 316°
2026-04-26 12:23 39.78129 20.81492 37039 ft 465 kts 316°
2026-04-26 12:24 39.82897 20.75818 37040 ft 472 kts 315°
2026-04-26 12:24 39.87778 20.69995 37031 ft 478 kts 315°
2026-04-26 12:25 39.95115 20.61226 37025 ft 476 kts 315°
2026-04-26 12:25 39.99987 20.55388 37013 ft 476 kts 315°
2026-04-26 12:26 40.04856 20.49540 37015 ft 476 kts 315°
2026-04-26 12:26 40.09989 20.44146 37016 ft 478 kts 321°
2026-04-26 12:27 40.15329 20.38971 37010 ft 478 kts 321°
2026-04-26 12:27 40.20687 20.33821 37013 ft 478 kts 321°
2026-04-26 12:28 40.26010 20.28689 37013 ft 478 kts 321°
2026-04-26 12:28 40.31357 20.23512 37015 ft 478 kts 321°
2026-04-26 12:29 40.36466 20.18552 37024 ft 478 kts 321°
2026-04-26 12:30 40.44481 20.10751 37023 ft 478 kts 321°
2026-04-26 12:30 40.49796 20.05567 36867 ft 472 kts 321°
2026-04-26 12:31 40.55032 20.00451 36622 ft 467 kts 321°
2026-04-26 12:31 40.57607 19.97937 36498 ft 467 kts 321°
2026-04-26 12:31 40.60218 19.95377 36367 ft 467 kts 321°
2026-04-26 12:31 40.62822 19.92820 36236 ft 467 kts 321°
2026-04-26 12:32 40.65427 19.90260 36124 ft 467 kts 321°
2026-04-26 12:32 40.68030 19.87699 36042 ft 467 kts 321°
2026-04-26 12:33 40.75935 19.79906 36043 ft 481 kts 321°
2026-04-26 12:33 40.81284 19.74623 36046 ft 484 kts 321°
2026-04-26 12:34 40.86672 19.69296 36054 ft 483 kts 321°
2026-04-26 12:34 40.92056 19.63960 36057 ft 483 kts 321°
2026-04-26 12:35 40.97308 19.58741 36063 ft 483 kts 321°
2026-04-26 12:35 41.02643 19.53430 36072 ft 483 kts 321°
2026-04-26 12:36 41.08019 19.48086 36070 ft 483 kts 321°
2026-04-26 12:36 41.13389 19.42709 36076 ft 483 kts 321°
2026-04-26 12:37 41.18752 19.37325 36078 ft 484 kts 321°
2026-04-26 12:37 41.24120 19.31933 36081 ft 484 kts 321°
2026-04-26 12:38 41.29454 19.26566 36080 ft 484 kts 321°
2026-04-26 12:38 41.34815 19.21162 36084 ft 484 kts 321°
2026-04-26 12:39 41.40181 19.15740 36084 ft 484 kts 321°
2026-04-26 12:39 41.45523 19.10331 36088 ft 484 kts 321°
2026-04-26 12:40 41.50890 19.04877 36087 ft 484 kts 320°
2026-04-26 12:40 41.56192 18.99444 36089 ft 484 kts 320°
2026-04-26 12:41 41.61536 18.93959 36089 ft 484 kts 320°
2026-04-26 12:41 41.66871 18.88477 36090 ft 484 kts 320°
2026-04-26 12:42 41.72197 18.82995 36091 ft 484 kts 320°
2026-04-26 12:42 41.77554 18.77644 36085 ft 485 kts 327°
2026-04-26 12:42 41.80640 18.75793 36093 ft 489 kts 341°
2026-04-26 12:43 41.83952 18.74832 36094 ft 492 kts 348°
2026-04-26 12:43 41.90693 18.73271 36090 ft 489 kts 339°
2026-04-26 12:44 41.96892 18.69642 36092 ft 484 kts 324°
2026-04-26 12:44 41.99438 18.66739 36104 ft 479 kts 311°
2026-04-26 12:44 42.01711 18.63465 36087 ft 479 kts 309°
2026-04-26 12:45 42.05758 18.56440 36089 ft 479 kts 304°
2026-04-26 12:45 42.09514 18.49228 36085 ft 478 kts 303°
2026-04-26 12:46 42.13229 18.41799 36087 ft 478 kts 302°
2026-04-26 12:46 42.16912 18.34387 36085 ft 478 kts 302°
2026-04-26 12:47 42.20590 18.26994 36088 ft 478 kts 303°
2026-04-26 12:47 42.24295 18.19548 36074 ft 478 kts 303°
2026-04-26 12:48 42.27997 18.12092 36093 ft 478 kts 302°
2026-04-26 12:48 42.31672 18.04669 36100 ft 478 kts 302°
2026-04-26 12:49 42.35343 17.97240 36100 ft 478 kts 302°
2026-04-26 12:49 42.39035 17.89748 36099 ft 478 kts 302°
2026-04-26 12:50 42.42719 17.82251 36096 ft 479 kts 302°
2026-04-26 12:50 42.46400 17.74745 36092 ft 479 kts 302°
2026-04-26 12:51 42.50053 17.67274 36082 ft 479 kts 302°
2026-04-26 12:51 42.53724 17.59749 36080 ft 479 kts 302°
2026-04-26 12:52 42.57400 17.52195 36083 ft 479 kts 302°
2026-04-26 12:52 42.61062 17.44648 36099 ft 479 kts 302°
2026-04-26 12:53 42.64700 17.37135 36100 ft 479 kts 302°
2026-04-26 12:53 42.68348 17.29581 36082 ft 480 kts 302°
2026-04-26 12:54 42.72000 17.21999 36089 ft 480 kts 302°
2026-04-26 12:54 42.75659 17.14383 36080 ft 480 kts 302°
2026-04-26 12:55 42.79284 17.06820 36084 ft 481 kts 302°
2026-04-26 12:55 42.82931 16.99189 36109 ft 481 kts 302°
2026-04-26 12:56 42.86572 16.91552 36093 ft 481 kts 302°
2026-04-26 12:56 42.90217 16.83888 36091 ft 481 kts 302°
2026-04-26 12:57 42.93825 16.76282 36109 ft 481 kts 302°
2026-04-26 12:57 42.97459 16.68601 36092 ft 482 kts 302°
2026-04-26 12:58 43.02901 16.57060 36101 ft 482 kts 302°
2026-04-26 12:58 43.06525 16.49351 36089 ft 482 kts 302°
2026-04-26 12:59 43.10142 16.41636 36089 ft 482 kts 302°
2026-04-26 12:59 43.13730 16.33963 36087 ft 482 kts 302°
2026-04-26 13:00 43.17341 16.26221 36086 ft 482 kts 302°
2026-04-26 13:00 43.20941 16.18481 36085 ft 482 kts 302°
2026-04-26 13:01 43.24540 16.10724 36083 ft 482 kts 302°
2026-04-26 13:01 43.28111 16.03007 36097 ft 482 kts 302°
2026-04-26 13:02 43.31698 15.95233 36098 ft 482 kts 302°
2026-04-26 13:02 43.35286 15.87439 36092 ft 482 kts 302°
2026-04-26 13:03 43.38863 15.79647 36099 ft 483 kts 302°
2026-04-26 13:03 43.42441 15.71833 36089 ft 483 kts 302°
2026-04-26 13:04 43.46016 15.64003 36098 ft 483 kts 302°
2026-04-26 13:04 43.49557 15.56227 36095 ft 483 kts 302°
2026-04-26 13:05 43.53118 15.48387 36109 ft 483 kts 302°
2026-04-26 13:05 43.56676 15.40533 36097 ft 483 kts 302°
2026-04-26 13:06 43.60231 15.32664 36090 ft 483 kts 302°
2026-04-26 13:06 43.63749 15.24855 36092 ft 483 kts 302°
2026-04-26 13:07 43.67294 15.16965 36112 ft 483 kts 302°
2026-04-26 13:07 43.70831 15.09071 36117 ft 483 kts 302°
2026-04-26 13:08 43.74361 15.01173 36102 ft 483 kts 302°
2026-04-26 13:08 43.77864 14.93312 36104 ft 483 kts 301°
2026-04-26 13:09 43.81381 14.85399 36097 ft 483 kts 301°
2026-04-26 13:09 43.84894 14.77474 36109 ft 483 kts 301°
2026-04-26 13:10 43.88406 14.69528 36122 ft 483 kts 301°
2026-04-26 13:10 43.91907 14.61586 36121 ft 483 kts 301°
2026-04-26 13:11 43.95408 14.53624 36104 ft 483 kts 301°
2026-04-26 13:11 43.98877 14.45709 36114 ft 483 kts 301°
2026-04-26 13:12 44.02360 14.37743 36103 ft 483 kts 301°
2026-04-26 13:12 44.05845 14.29751 36118 ft 483 kts 301°
2026-04-26 13:13 44.09294 14.21818 36103 ft 483 kts 301°
2026-04-26 13:13 44.12762 14.13818 36101 ft 483 kts 301°
2026-04-26 13:14 44.16224 14.05811 36103 ft 483 kts 301°
2026-04-26 13:14 44.19679 13.97789 36098 ft 483 kts 301°
2026-04-26 13:15 44.23132 13.89763 36099 ft 483 kts 301°
2026-04-26 13:15 44.25986 13.83112 36108 ft 483 kts 300°
2026-04-26 13:16 44.29984 13.73766 36104 ft 483 kts 300°
2026-04-26 13:16 44.33414 13.65717 36105 ft 483 kts 300°
2026-04-26 13:17 44.38553 13.53613 36119 ft 483 kts 300°
2026-04-26 13:18 44.43167 13.41189 36103 ft 482 kts 293°
2026-04-26 13:19 44.47012 13.28215 36112 ft 483 kts 292°
2026-04-26 13:19 44.49544 13.19523 36113 ft 483 kts 292°
2026-04-26 13:20 44.52083 13.10816 36106 ft 483 kts 292°
2026-04-26 13:20 44.54605 13.02162 36109 ft 483 kts 292°
2026-04-26 13:21 44.57133 12.93460 36112 ft 483 kts 291°
2026-04-26 13:21 44.59662 12.84723 36108 ft 483 kts 291°
2026-04-26 13:22 44.62180 12.75991 36108 ft 483 kts 291°
2026-04-26 13:22 44.64691 12.67254 36098 ft 483 kts 291°
2026-04-26 13:23 44.67180 12.58562 36110 ft 483 kts 291°
2026-04-26 13:23 44.69677 12.49812 36093 ft 483 kts 291°
2026-04-26 13:24 44.72169 12.41047 36094 ft 483 kts 291°
2026-04-26 13:24 44.74656 12.32270 36092 ft 483 kts 291°
2026-04-26 13:25 44.77131 12.23504 36083 ft 482 kts 291°
2026-04-26 13:25 44.79600 12.14727 36082 ft 482 kts 291°
2026-04-26 13:26 44.81647 12.07428 36080 ft 483 kts 291°
2026-04-26 13:26 44.84504 11.97203 36074 ft 482 kts 291°
2026-04-26 13:27 44.86558 11.89827 36071 ft 482 kts 291°
2026-04-26 13:27 44.88987 11.81071 36075 ft 482 kts 291°
2026-04-26 13:28 44.91423 11.72263 36076 ft 482 kts 290°
2026-04-26 13:28 44.93851 11.63449 36077 ft 482 kts 290°
2026-04-26 13:29 44.96276 11.54614 36076 ft 482 kts 290°
2026-04-26 13:29 44.98673 11.45847 36083 ft 482 kts 290°
2026-04-26 13:30 45.01081 11.37010 36082 ft 482 kts 290°
2026-04-26 13:30 45.03484 11.28160 36089 ft 482 kts 290°
2026-04-26 13:31 45.05878 11.19310 36097 ft 482 kts 290°
2026-04-26 13:31 45.08258 11.10475 36099 ft 481 kts 290°
2026-04-26 13:32 45.10621 11.01676 36110 ft 481 kts 290°
2026-04-26 13:32 45.12992 10.92812 36097 ft 481 kts 290°
2026-04-26 13:33 45.15357 10.83929 36100 ft 481 kts 290°
2026-04-26 13:33 45.17712 10.75064 36093 ft 481 kts 290°
2026-04-26 13:34 45.20064 10.66177 36081 ft 481 kts 290°
2026-04-26 13:34 45.22390 10.57353 36083 ft 481 kts 290°
2026-04-26 13:35 45.24725 10.48457 36079 ft 481 kts 290°
2026-04-26 13:35 45.27051 10.39567 36076 ft 480 kts 290°
2026-04-26 13:36 45.29369 10.30669 36079 ft 480 kts 290°
2026-04-26 13:36 45.31676 10.21781 36081 ft 480 kts 289°
2026-04-26 13:37 45.33959 10.12955 36075 ft 479 kts 289°
2026-04-26 13:37 45.36252 10.04053 36072 ft 479 kts 289°
2026-04-26 13:38 45.38534 9.95160 36080 ft 478 kts 289°
2026-04-26 13:38 45.40808 9.86265 36078 ft 478 kts 289°
2026-04-26 13:39 45.43056 9.77437 36132 ft 478 kts 289°
2026-04-26 13:39 45.45312 9.68545 36153 ft 477 kts 289°
2026-04-26 13:40 45.47559 9.59653 36178 ft 477 kts 289°
2026-04-26 13:40 45.49800 9.50753 36182 ft 477 kts 289°
2026-04-26 13:41 45.52028 9.41866 36180 ft 476 kts 289°
2026-04-26 13:41 45.54237 9.33025 36076 ft 476 kts 289°
2026-04-26 13:42 45.56452 9.24124 36071 ft 476 kts 289°
2026-04-26 13:42 45.58521 9.15777 36080 ft 476 kts 288°
2026-04-26 13:43 45.60721 9.06867 36086 ft 476 kts 288°
2026-04-26 13:43 45.62857 8.98184 36092 ft 476 kts 288°
2026-04-26 13:44 45.65045 8.89252 36099 ft 476 kts 288°
2026-04-26 13:44 45.67224 8.80323 36102 ft 476 kts 288°
2026-04-26 13:45 45.69384 8.71439 36103 ft 476 kts 288°
2026-04-26 13:45 45.71549 8.62496 36102 ft 476 kts 288°
2026-04-26 13:46 45.73705 8.53554 36101 ft 476 kts 288°
2026-04-26 13:46 45.75859 8.44589 36099 ft 476 kts 288°
2026-04-26 13:47 45.78005 8.35616 36109 ft 476 kts 288°
2026-04-26 13:47 45.80145 8.26637 36120 ft 476 kts 288°
2026-04-26 13:48 45.82263 8.17712 36128 ft 477 kts 287°
2026-04-26 13:48 45.84389 8.08713 36139 ft 477 kts 287°
2026-04-26 13:49 45.86517 7.99672 36151 ft 477 kts 287°
2026-04-26 13:49 45.88595 7.90804 36163 ft 477 kts 287°
2026-04-26 13:50 45.90703 7.81777 36167 ft 478 kts 287°
2026-04-26 13:50 45.92792 7.72788 36153 ft 478 kts 287°
2026-04-26 13:51 45.94894 7.63708 36139 ft 479 kts 287°
2026-04-26 13:51 45.97345 7.54817 36129 ft 480 kts 297°
2026-04-26 13:52 46.01173 7.46922 36131 ft 483 kts 306°
2026-04-26 13:52 46.05354 7.39352 36115 ft 483 kts 307°
2026-04-26 13:53 46.09541 7.31858 36104 ft 483 kts 307°
2026-04-26 13:53 46.13727 7.24299 36100 ft 483 kts 307°
2026-04-26 13:54 46.17901 7.16705 36106 ft 483 kts 307°
2026-04-26 13:54 46.22069 7.09094 36117 ft 483 kts 307°
2026-04-26 13:55 46.27602 6.98954 36131 ft 483 kts 307°
2026-04-26 13:56 46.34494 6.86273 36153 ft 483 kts 307°
2026-04-26 13:56 46.38639 6.78616 36153 ft 483 kts 307°
2026-04-26 13:57 46.42776 6.70954 36154 ft 483 kts 307°
2026-04-26 13:57 46.46321 6.63090 36156 ft 482 kts 300°
2026-04-26 13:58 46.49680 6.54690 36152 ft 482 kts 299°
2026-04-26 13:58 46.53004 6.46221 36152 ft 483 kts 299°
2026-04-26 13:59 46.56307 6.37795 36152 ft 483 kts 299°
2026-04-26 13:59 46.59626 6.29325 36149 ft 483 kts 299°
2026-04-26 14:00 46.66258 6.12332 36142 ft 483 kts 299°
2026-04-26 14:01 46.69558 6.03837 36142 ft 483 kts 299°
2026-04-26 14:01 46.72855 5.95320 36142 ft 482 kts 299°
2026-04-26 14:02 46.76120 5.86857 36143 ft 482 kts 299°
2026-04-26 14:02 46.79403 5.78330 36148 ft 481 kts 299°
2026-04-26 14:03 46.81712 5.73125 36143 ft 481 kts 308°
2026-04-26 14:03 46.86387 5.66136 36148 ft 481 kts 316°
2026-04-26 14:04 46.91241 5.59459 36152 ft 480 kts 316°
2026-04-26 14:04 46.96070 5.52809 36155 ft 479 kts 316°
2026-04-26 14:05 47.00923 5.46115 36158 ft 478 kts 316°
2026-04-26 14:05 47.05759 5.39429 36157 ft 477 kts 316°
2026-04-26 14:06 47.10585 5.32742 36157 ft 477 kts 316°
2026-04-26 14:06 47.15370 5.26092 36156 ft 476 kts 316°
2026-04-26 14:07 47.20169 5.19405 36156 ft 475 kts 316°
2026-04-26 14:07 47.24922 5.12768 35908 ft 464 kts 316°
2026-04-26 14:07 47.27261 5.09495 35117 ft 465 kts 317°
2026-04-26 14:08 47.29555 5.06134 34329 ft 467 kts 314°
2026-04-26 14:08 47.31760 5.02679 33489 ft 467 kts 314°
2026-04-26 14:08 47.33988 4.99197 32561 ft 469 kts 314°
2026-04-26 14:08 47.36243 4.95698 31600 ft 472 kts 314°
2026-04-26 14:09 47.38516 4.92178 30680 ft 475 kts 314°
2026-04-26 14:09 47.40804 4.88637 29746 ft 477 kts 314°
2026-04-26 14:09 47.43087 4.85100 28872 ft 476 kts 314°
2026-04-26 14:09 47.45364 4.81570 28277 ft 470 kts 314°
2026-04-26 14:10 47.47604 4.78094 27672 ft 464 kts 314°
2026-04-26 14:10 47.49810 4.74668 27277 ft 458 kts 314°
2026-04-26 14:10 47.52001 4.71266 26823 ft 457 kts 313°
2026-04-26 14:10 47.54180 4.67873 26363 ft 456 kts 313°
2026-04-26 14:11 47.58538 4.61070 25658 ft 452 kts 313°
2026-04-26 14:11 47.60508 4.57538 25641 ft 452 kts 306°
2026-04-26 14:11 47.62157 4.53572 25412 ft 451 kts 299°
2026-04-26 14:12 47.63652 4.49492 25169 ft 450 kts 298°
2026-04-26 14:12 47.65131 4.45425 24933 ft 449 kts 298°
2026-04-26 14:12 47.66610 4.41349 24509 ft 448 kts 298°
2026-04-26 14:12 47.68077 4.37289 24174 ft 446 kts 298°
2026-04-26 14:13 47.70987 4.29197 23447 ft 443 kts 298°
2026-04-26 14:13 47.72418 4.25207 23046 ft 441 kts 298°
2026-04-26 14:13 47.73873 4.21141 22647 ft 439 kts 298°
2026-04-26 14:14 47.75279 4.17205 22259 ft 437 kts 298°
2026-04-26 14:14 47.76695 4.13236 21872 ft 434 kts 298°
2026-04-26 14:14 47.78105 4.09280 21488 ft 432 kts 298°
2026-04-26 14:14 47.79508 4.05335 21108 ft 429 kts 298°
2026-04-26 14:15 47.80899 4.01419 20738 ft 427 kts 298°
2026-04-26 14:15 47.82280 3.97526 20376 ft 425 kts 298°
2026-04-26 14:15 47.83655 3.93643 20003 ft 423 kts 298°
2026-04-26 14:15 47.85021 3.89779 19650 ft 421 kts 298°
2026-04-26 14:16 47.86381 3.85928 19297 ft 419 kts 297°
2026-04-26 14:16 47.87734 3.82093 18944 ft 417 kts 297°
2026-04-26 14:16 47.89064 3.78313 18599 ft 416 kts 298°
2026-04-26 14:16 47.90412 3.74481 18282 ft 410 kts 297°
2026-04-26 14:17 47.91697 3.70818 18204 ft 395 kts 297°
2026-04-26 14:17 47.93038 3.67344 18214 ft 381 kts 304°
2026-04-26 14:17 47.94670 3.64186 17647 ft 391 kts 310°
2026-04-26 14:17 47.96460 3.61095 16940 ft 393 kts 311°
2026-04-26 14:18 47.98260 3.58028 16373 ft 391 kts 311°
2026-04-26 14:18 48.00049 3.54985 15793 ft 390 kts 311°
2026-04-26 14:18 48.01837 3.51948 15371 ft 391 kts 311°
2026-04-26 14:18 48.03646 3.48875 14793 ft 394 kts 311°
2026-04-26 14:19 48.05460 3.45795 14138 ft 394 kts 311°
2026-04-26 14:19 48.07216 3.42811 13992 ft 380 kts 311°
2026-04-26 14:19 48.08944 3.39874 13859 ft 365 kts 311°
2026-04-26 14:19 48.10565 3.37115 13758 ft 351 kts 311°
2026-04-26 14:20 48.12146 3.34418 13599 ft 339 kts 311°
2026-04-26 14:20 48.13703 3.31761 13446 ft 328 kts 311°
2026-04-26 14:20 48.15159 3.29275 13297 ft 318 kts 311°
2026-04-26 14:20 48.16595 3.26820 13114 ft 308 kts 311°
2026-04-26 14:21 48.18004 3.24408 12740 ft 308 kts 311°
2026-04-26 14:21 48.19420 3.21983 12369 ft 309 kts 311°
2026-04-26 14:21 48.20832 3.19563 12025 ft 308 kts 311°
2026-04-26 14:21 48.22299 3.17255 11747 ft 306 kts 319°
2026-04-26 14:22 48.24091 3.15597 11513 ft 299 kts 336°
2026-04-26 14:22 48.25981 3.14371 11260 ft 294 kts 335°
2026-04-26 14:22 48.27674 3.12798 11060 ft 291 kts 320°
2026-04-26 14:22 48.29116 3.10620 10695 ft 291 kts 311°
2026-04-26 14:23 48.30422 3.08346 10376 ft 291 kts 311°
2026-04-26 14:23 48.31734 3.06049 10233 ft 288 kts 311°
2026-04-26 14:23 48.33039 3.03750 10203 ft 289 kts 310°
2026-04-26 14:23 48.34334 3.01456 10210 ft 289 kts 310°
2026-04-26 14:24 48.35634 2.99142 10213 ft 289 kts 310°
2026-04-26 14:24 48.36934 2.96826 10215 ft 289 kts 310°
2026-04-26 14:24 48.38231 2.94510 10219 ft 289 kts 310°
2026-04-26 14:24 48.39525 2.92195 10219 ft 289 kts 310°
2026-04-26 14:25 48.40819 2.89878 10225 ft 289 kts 310°
2026-04-26 14:25 48.42114 2.87557 10225 ft 289 kts 310°
2026-04-26 14:25 48.43402 2.85245 10224 ft 289 kts 310°
2026-04-26 14:25 48.44603 2.82809 10229 ft 289 kts 301°
2026-04-26 14:26 48.45405 2.80043 10230 ft 290 kts 285°
2026-04-26 14:26 48.45669 2.77121 10227 ft 290 kts 274°
2026-04-26 14:26 48.45774 2.74078 10231 ft 291 kts 273°
2026-04-26 14:26 48.45870 2.71046 10226 ft 291 kts 273°
2026-04-26 14:27 48.45963 2.67998 10117 ft 293 kts 273°
2026-04-26 14:27 48.46052 2.64981 9733 ft 292 kts 273°
2026-04-26 14:27 48.46152 2.61878 9300 ft 292 kts 274°
2026-04-26 14:27 48.46290 2.58829 8902 ft 292 kts 274°
2026-04-26 14:28 48.46424 2.55939 8524 ft 291 kts 274°
2026-04-26 14:28 48.46550 2.53134 8149 ft 291 kts 274°
2026-04-26 14:28 48.46683 2.50089 7750 ft 290 kts 274°
2026-04-26 14:28 48.46812 2.47068 7381 ft 289 kts 274°
2026-04-26 14:29 48.46939 2.44099 7241 ft 279 kts 274°
2026-04-26 14:29 48.47061 2.41190 7227 ft 278 kts 274°
2026-04-26 14:29 48.47183 2.38278 7222 ft 279 kts 274°
2026-04-26 14:29 48.47305 2.35348 7033 ft 282 kts 274°
2026-04-26 14:30 48.47425 2.32446 6689 ft 281 kts 274°
2026-04-26 14:30 48.47547 2.29481 6313 ft 280 kts 274°
2026-04-26 14:30 48.47664 2.26597 5940 ft 279 kts 274°
2026-04-26 14:30 48.47782 2.23680 5562 ft 278 kts 273°
2026-04-26 14:31 48.47909 2.20780 5191 ft 277 kts 275°
2026-04-26 14:31 48.48377 2.17998 4823 ft 275 kts 295°
2026-04-26 14:31 48.49279 2.15453 4379 ft 276 kts 301°
2026-04-26 14:31 48.50259 2.12957 4051 ft 274 kts 302°
2026-04-26 14:32 48.51207 2.10535 3980 ft 266 kts 302°
2026-04-26 14:32 48.52147 2.08125 3979 ft 267 kts 301°
2026-04-26 14:32 48.53092 2.05700 3978 ft 268 kts 302°
2026-04-26 14:32 48.54025 2.03307 3984 ft 269 kts 302°
2026-04-26 14:33 48.54987 2.00853 3982 ft 268 kts 302°
2026-04-26 14:33 48.55937 1.98430 3970 ft 268 kts 301°
2026-04-26 14:33 48.56934 1.96092 3980 ft 268 kts 309°
2026-04-26 14:33 48.58300 1.94218 3976 ft 266 kts 330°
2026-04-26 14:34 48.60047 1.93534 3982 ft 261 kts
2026-04-26 14:34 48.61704 1.94433 3983 ft 250 kts 39°
2026-04-26 14:34 48.62643 1.96495 3992 ft 237 kts 74°
2026-04-26 14:34 48.62722 1.98934 4016 ft 229 kts 97°
2026-04-26 14:35 48.62428 2.01273 3993 ft 227 kts 101°
2026-04-26 14:35 48.62084 2.03610 3978 ft 230 kts 101°
2026-04-26 14:35 48.61729 2.05980 3985 ft 229 kts 102°
2026-04-26 14:35 48.61377 2.08319 3988 ft 229 kts 102°
2026-04-26 14:36 48.61023 2.10671 3989 ft 229 kts 102°
2026-04-26 14:36 48.60669 2.13006 3989 ft 229 kts 102°
2026-04-26 14:36 48.60261 2.15302 3984 ft 229 kts 109°
2026-04-26 14:36 48.59354 2.17275 3992 ft 233 kts 139°
2026-04-26 14:37 48.57895 2.18276 3983 ft 235 kts 170°
2026-04-26 14:37 48.56279 2.18002 3980 ft 238 kts 201°
2026-04-26 14:37 48.54967 2.16532 3992 ft 239 kts 232°
2026-04-26 14:37 48.54308 2.14256 3985 ft 238 kts 262°
2026-04-26 14:38 48.54201 2.11763 3984 ft 239 kts 270°
2026-04-26 14:38 48.54211 2.09262 3980 ft 240 kts 271°
2026-04-26 14:38 48.54236 2.06746 3986 ft 240 kts 271°
2026-04-26 14:38 48.54251 2.05073 3990 ft 240 kts 271°
2026-04-26 14:39 48.54291 2.01718 3982 ft 239 kts 273°
2026-04-26 14:39 48.54657 1.99301 3971 ft 237 kts 298°
2026-04-26 14:39 48.55738 1.97471 3980 ft 233 kts 329°
2026-04-26 14:39 48.57222 1.96565 3987 ft 231 kts 354°
2026-04-26 14:40 48.58782 1.96880 3981 ft 227 kts 27°
2026-04-26 14:40 48.59993 1.98343 3995 ft 225 kts 51°
2026-04-26 14:40 48.60855 2.00322 3988 ft 226 kts 62°
2026-04-26 14:40 48.61576 2.02407 3990 ft 227 kts 61°
2026-04-26 14:41 48.62346 2.04491 3998 ft 228 kts 61°
2026-04-26 14:41 48.63097 2.06589 3986 ft 228 kts 62°
2026-04-26 14:41 48.63853 2.08701 3775 ft 227 kts 61°
2026-04-26 14:41 48.64605 2.10776 3457 ft 222 kts 61°
2026-04-26 14:42 48.64880 2.11543 3348 ft 217 kts 62°
2026-04-26 14:42 48.65237 2.12551 3211 ft 211 kts 62°
2026-04-26 14:43 48.65764 2.14046 2990 ft 208 kts 62°
2026-04-26 14:43 48.66427 2.15921 2726 ft 195 kts 61°
2026-04-26 14:43 48.67042 2.17655 2463 ft 184 kts 61°
2026-04-26 14:43 48.67630 2.19317 2213 ft 170 kts 61°
2026-04-26 14:44 48.68163 2.20818 1969 ft 159 kts 61°
2026-04-26 14:44 48.68659 2.22271 1663 ft 153 kts 63°
2026-04-26 14:44 48.69132 2.23687 1375 ft 147 kts 63°
2026-04-26 14:44 48.69615 2.25021 1116 ft 142 kts 60°
2026-04-26 14:45 48.70084 2.26277 958 ft 134 kts 60°
2026-04-26 14:45 48.70372 2.27105 900 ft 134 kts 62°
2026-04-26 14:45 48.70971 2.28778 765 ft 138 kts 59°
2026-04-26 14:45 48.71428 2.30040 576 ft 134 kts 63°
2026-04-26 14:46 48.71866 2.31295 423 ft 136 kts 62°
2026-04-26 14:46 48.72298 2.32543 305 ft 134 kts 62°
2026-04-26 14:46 48.72698 2.33680 305 ft 107 kts 62°
2026-04-26 14:46 48.73017 2.34569 302 ft 84 kts 62°
2026-04-26 14:47 48.73166 2.34997 304 ft 21 kts 62°
2026-04-26 14:47 48.73252 2.35237 301 ft 28 kts 62°
2026-04-26 14:47 48.73261 2.35408 302 ft 2 kts 119°
2026-04-26 14:47 48.73239 2.35448 304 ft 0 kts 137°
2026-04-26 14:48 48.73237 2.35451 302 ft 2 kts 137°
2026-04-26 14:48 48.73222 2.35472 303 ft 4 kts 139°
2026-04-26 14:48 48.73189 2.35508 302 ft 7 kts 146°
2026-04-26 14:49 48.73137 2.35559 302 ft 10 kts 147°
2026-04-26 14:49 48.73067 2.35604 303 ft 12 kts 185°
2026-04-26 14:49 48.72989 2.35542 303 ft 14 kts 206°
2026-04-26 14:49 48.72907 2.35468 303 ft 15 kts 228°
2026-04-26 14:50 48.72810 2.35450 302 ft 16 kts 166°
2026-04-26 14:50 48.72733 2.35482 299 ft 18 kts 165°
2026-04-26 14:50 48.72558 2.35554 299 ft 22 kts 165°
2026-04-26 14:50 48.72467 2.35614 299 ft 9 kts 118°
2026-04-26 14:51 48.72470 2.35712 296 ft 10 kts 81°
2026-04-26 14:51 48.72481 2.35832 296 ft 13 kts 91°
2026-04-26 14:51 48.72470 2.35974 296 ft 15 kts 90°
2026-04-26 14:51 48.72492 2.36133 301 ft 16 kts 73°
2026-04-26 14:52 48.72525 2.36307 300 ft 18 kts 73°
2026-04-26 14:52 48.72561 2.36496 300 ft 19 kts 75°
2026-04-26 14:52 48.72601 2.36700 301 ft 21 kts 70°
2026-04-26 14:52 48.72651 2.36913 302 ft 22 kts 73°
2026-04-26 14:53 48.72684 2.37140 301 ft 23 kts 76°
2026-04-26 14:53 48.72728 2.37376 304 ft 24 kts 74°
2026-04-26 14:53 48.72781 2.37612 304 ft 23 kts 74°
2026-04-26 14:53 48.72829 2.37770 304 ft 14 kts 33°
2026-04-26 14:54 48.72925 2.37827 304 ft 16 kts 20°
2026-04-26 14:54 48.73028 2.37849 303 ft 14 kts 345°
2026-04-26 14:54 48.73125 2.37806 306 ft 13 kts 331°
2026-04-26 14:54 48.73158 2.37693 304 ft 13 kts 259°
2026-04-26 14:55 48.73132 2.37604 305 ft 6 kts 227°
2026-04-26 14:55 48.73127 2.37596 306 ft 0 kts 226°